Time,TemperatureF,DewpointF,PressureIn,WindDirection,WindDirectionDegrees,WindSpeedMPH,WindSpeedGustMPH,Humidity,HourlyPrecipIn,Conditions,Clouds,dailyrainin,SoftwareType,DateUTC
2013-08-27 00:00:00,68.9,68.0,29.75,SE,135,0.0,0.0,97,0.00,RA,,0.00,WeatherDisplay:10.37,2013-08-27 04:00:00,
2013-08-27 00:01:00,68.9,68.0,29.75,WNW,292,4.6,0.0,97,0.00,RA,,0.00,WeatherDisplay:10.37,2013-08-27 04:01:00,
2013-08-27 00:06:00,68.9,68.0,29.75,NE,45,0.0,0.0,97,0.00,RA,,0.00,WeatherDisplay:10.37,2013-08-27 04:06:00,
2013-08-27 00:11:00,68.7,67.8,29.75,NE,45,0.0,0.0,97,0.00,CLR,,0.00,WeatherDisplay:10.37,2013-08-27 04:11:00,
2013-08-27 00:12:00,68.7,67.8,29.75,NE,45,0.0,0.0,97,0.00,CLR,,0.00,WeatherDisplay:10.37,2013-08-27 04:12:00,
2013-08-27 00:16:00,68.7,67.8,29.75,ESE,112,0.0,0.0,97,0.00,CLR,,0.00,WeatherDisplay:10.37,2013-08-27 04:16:00,
2013-08-27 00:17:00,68.7,67.8,29.75,ENE,68,0.0,0.0,97,0.00,CLR,,0.00,WeatherDisplay:10.37,2013-08-27 04:17:00,
2013-08-27 00:18:00,68.7,67.8,29.75,ENE,68,0.0,0.0,97,0.00,CLR,,0.00,WeatherDisplay:10.37,2013-08-27 04:18:00,
2013-08-27 00:21:00,68.7,67.8,29.75,ENE,68,0.0,0.0,97,0.00,CLR,,0.00,WeatherDisplay:10.37,2013-08-27 04:21:00,
2013-08-27 00:22:00,68.7,67.8,29.75,ENE,68,0.0,0.0,97,0.00,CLR,,0.00,WeatherDisplay:10.37,2013-08-27 04:22:00,
2013-08-27 00:23:00,68.5,67.7,29.75,NNE,22,0.0,0.0,97,0.00,CLR,,0.00,WeatherDisplay:10.37,2013-08-27 04:23:00,
2013-08-27 00:27:00,68.5,67.7,29.75,NE,45,0.0,0.0,97,0.00,CLR,,0.00,WeatherDisplay:10.37,2013-08-27 04:27:00,
2013-08-27 00:29:00,68.5,67.7,29.75,NE,45,0.0,0.0,97,0.00,CLR,,0.00,WeatherDisplay:10.37,2013-08-27 04:29:00,
2013-08-27 00:32:00,68.5,67.7,29.75,NE,45,3.5,3.5,97,0.00,CLR,,0.00,WeatherDisplay:10.37,2013-08-27 04:32:00,
2013-08-27 00:33:00,68.5,67.7,29.75,North,0,0.0,0.9,97,0.00,CLR,,0.00,WeatherDisplay:10.37,2013-08-27 04:33:00,
2013-08-27 00:34:00,68.5,67.7,29.75,NE,45,0.0,0.0,97,0.00,CLR,,0.00,WeatherDisplay:10.37,2013-08-27 04:34:00,
2013-08-27 00:37:00,68.5,67.7,29.75,East,90,0.0,0.0,97,0.00,CLR,,0.00,WeatherDisplay:10.37,2013-08-27 04:37:00,
2013-08-27 00:38:00,68.5,67.7,29.75,NNW,338,2.6,0.0,97,0.00,CLR,,0.00,WeatherDisplay:10.37,2013-08-27 04:38:00,
2013-08-27 00:39:00,68.5,67.7,29.75,WNW,292,2.3,0.0,97,0.00,CLR,,0.00,WeatherDisplay:10.37,2013-08-27 04:39:00,
2013-08-27 00:42:00,68.5,68.0,29.75,ENE,68,0.0,0.0,98,0.00,CLR,,0.00,WeatherDisplay:10.37,2013-08-27 04:42:00,
2013-08-27 00:43:00,68.4,67.8,29.75,South,180,0.0,0.0,98,0.00,CLR,,0.00,WeatherDisplay:10.37,2013-08-27 04:43:00,
2013-08-27 00:45:00,68.4,67.8,29.75,SSE,158,0.0,0.0,98,0.00,CLR,,0.00,WeatherDisplay:10.37,2013-08-27 04:45:00,
2013-08-27 00:47:00,68.4,67.8,29.75,WSW,248,0.0,0.0,98,0.00,CLR,,0.00,WeatherDisplay:10.37,2013-08-27 04:47:00,
2013-08-27 00:48:00,68.4,67.8,29.75,NNE,22,0.0,0.0,98,0.00,CLR,,0.00,WeatherDisplay:10.37,2013-08-27 04:48:00,
2013-08-27 00:50:00,68.4,67.8,29.75,West,270,2.3,0.0,98,0.00,CLR,,0.00,WeatherDisplay:10.37,2013-08-27 04:50:00,
2013-08-27 00:53:00,68.4,67.8,29.75,NNW,338,0.0,0.0,98,0.00,CLR,,0.00,WeatherDisplay:10.37,2013-08-27 04:53:00,
2013-08-27 00:55:00,68.4,67.8,29.75,SSW,202,0.0,0.0,98,0.00,CLR,,0.00,WeatherDisplay:10.37,2013-08-27 04:55:00,
2013-08-27 00:58:00,68.4,67.8,29.75,ENE,68,0.0,0.0,98,0.00,CLR,,0.00,WeatherDisplay:10.37,2013-08-27 04:58:00,
2013-08-27 00:59:00,68.4,67.8,29.75,WNW,292,0.0,0.0,98,0.00,CLR,,0.00,WeatherDisplay:10.37,2013-08-27 04:59:00,
2013-08-27 01:00:00,68.4,67.8,29.75,NNW,338,0.0,0.0,98,0.00,CLR,,0.00,WeatherDisplay:10.37,2013-08-27 05:00:00,
2013-08-27 01:03:00,68.4,67.8,29.75,NNE,22,0.0,0.0,98,0.00,CLR,,0.00,WeatherDisplay:10.37,2013-08-27 05:03:00,
2013-08-27 01:04:00,68.4,67.8,29.75,NNW,338,0.0,0.0,98,0.00,CLR,,0.00,WeatherDisplay:10.37,2013-08-27 05:04:00,
2013-08-27 01:05:00,68.4,67.8,29.75,ENE,68,0.0,0.0,98,0.00,CLR,,0.00,WeatherDisplay:10.37,2013-08-27 05:05:00,
2013-08-27 01:08:00,68.4,67.8,29.75,ENE,68,0.0,0.0,98,0.00,CLR,,0.00,WeatherDisplay:10.37,2013-08-27 05:08:00,
2013-08-27 01:09:00,68.4,67.8,29.75,ENE,68,0.0,0.0,98,0.00,CLR,,0.00,WeatherDisplay:10.37,2013-08-27 05:09:00,
2013-08-27 01:10:00,68.4,67.8,29.75,NE,45,0.0,0.0,98,0.00,CLR,,0.00,WeatherDisplay:10.37,2013-08-27 05:10:00,
2013-08-27 01:13:00,68.4,67.8,29.75,West,270,0.0,0.0,98,0.00,CLR,,0.00,WeatherDisplay:10.37,2013-08-27 05:13:00,
2013-08-27 01:14:00,68.4,67.8,29.75,South,180,0.0,0.0,98,0.00,CLR,,0.00,WeatherDisplay:10.37,2013-08-27 05:14:00,
2013-08-27 01:15:00,68.4,67.8,29.75,SSE,158,0.0,0.0,98,0.00,CLR,,0.00,WeatherDisplay:10.37,2013-08-27 05:15:00,
2013-08-27 01:18:00,68.5,68.0,29.75,SSE,158,0.0,0.0,98,0.00,CLR,,0.00,WeatherDisplay:10.37,2013-08-27 05:18:00,
2013-08-27 01:19:00,68.5,68.0,29.75,ESE,112,0.0,0.0,98,0.00,CLR,,0.00,WeatherDisplay:10.37,2013-08-27 05:19:00,
2013-08-27 01:21:00,68.5,68.0,29.75,ENE,68,0.0,0.0,98,0.00,CLR,,0.00,WeatherDisplay:10.37,2013-08-27 05:21:00,
2013-08-27 01:24:00,68.5,68.0,29.75,WNW,292,0.0,0.0,98,0.00,CLR,,0.00,WeatherDisplay:10.37,2013-08-27 05:24:00,
2013-08-27 01:26:00,68.5,68.0,29.75,WNW,292,0.0,0.0,98,0.00,CLR,,0.00,WeatherDisplay:10.37,2013-08-27 05:26:00,
2013-08-27 01:29:00,68.5,68.0,29.75,NNW,338,0.0,0.0,98,0.00,CLR,,0.00,WeatherDisplay:10.37,2013-08-27 05:29:00,
2013-08-27 01:31:00,68.5,68.0,29.75,NNW,338,0.0,0.0,98,0.00,CLR,,0.00,WeatherDisplay:10.37,2013-08-27 05:31:00,
2013-08-27 01:34:00,68.5,68.0,29.75,North,0,0.0,0.0,98,0.00,CLR,,0.00,WeatherDisplay:10.37,2013-08-27 05:34:00,
2013-08-27 01:35:00,68.5,68.0,29.75,North,0,0.0,0.0,98,0.00,CLR,,0.00,WeatherDisplay:10.37,2013-08-27 05:35:00,
2013-08-27 01:37:00,68.5,68.0,29.75,ENE,68,0.0,0.0,98,0.00,CLR,,0.00,WeatherDisplay:10.37,2013-08-27 05:37:00,
2013-08-27 01:39:00,68.5,68.0,29.75,West,270,0.0,0.0,98,0.00,CLR,,0.00,WeatherDisplay:10.37,2013-08-27 05:39:00,
2013-08-27 01:40:00,68.5,68.0,29.75,West,270,0.0,0.0,98,0.00,CLR,,0.00,WeatherDisplay:10.37,2013-08-27 05:40:00,
2013-08-27 01:42:00,68.4,67.8,29.75,NNW,338,0.0,0.0,98,0.00,CLR,,0.00,WeatherDisplay:10.37,2013-08-27 05:42:00,
2013-08-27 01:44:00,68.4,67.8,29.75,West,270,0.0,0.0,98,0.00,CLR,,0.00,WeatherDisplay:10.37,2013-08-27 05:44:00,
2013-08-27 01:45:00,68.4,67.8,29.75,West,270,0.0,0.0,98,0.00,CLR,,0.00,WeatherDisplay:10.37,2013-08-27 05:45:00,
2013-08-27 01:47:00,68.5,68.0,29.75,WNW,292,0.0,0.0,98,0.00,CLR,,0.00,WeatherDisplay:10.37,2013-08-27 05:47:00,
2013-08-27 01:50:00,68.5,68.0,29.75,WNW,292,0.0,0.0,98,0.00,CLR,,0.00,WeatherDisplay:10.37,2013-08-27 05:50:00,
2013-08-27 01:51:00,68.5,68.0,29.75,NNW,338,0.0,0.0,98,0.00,CLR,,0.00,WeatherDisplay:10.37,2013-08-27 05:51:00,
2013-08-27 01:52:00,68.5,68.0,29.75,West,270,0.0,0.0,98,0.00,CLR,,0.00,WeatherDisplay:10.37,2013-08-27 05:52:00,
2013-08-27 01:55:00,68.5,68.0,29.75,West,270,0.0,0.0,98,0.00,CLR,,0.00,WeatherDisplay:10.37,2013-08-27 05:55:00,
2013-08-27 01:56:00,68.5,68.0,29.75,NNW,338,0.0,0.0,98,0.00,CLR,,0.00,WeatherDisplay:10.37,2013-08-27 05:56:00,
2013-08-27 01:57:00,68.4,67.8,29.75,NNE,22,0.0,0.0,98,0.00,CLR,,0.00,WeatherDisplay:10.37,2013-08-27 05:57:00,
2013-08-27 02:00:00,68.4,67.8,29.75,WNW,292,0.0,0.0,98,0.00,CLR,,0.00,WeatherDisplay:10.37,2013-08-27 06:00:00,
2013-08-27 02:01:00,68.4,67.8,29.75,NNW,338,0.0,0.0,98,0.00,CLR,,0.00,WeatherDisplay:10.37,2013-08-27 06:01:00,
2013-08-27 02:02:00,68.4,67.8,29.75,SSE,158,0.0,0.0,98,0.00,CLR,,0.00,WeatherDisplay:10.37,2013-08-27 06:02:00,
2013-08-27 02:05:00,68.4,67.8,29.75,NW,315,0.0,0.0,98,0.00,CLR,,0.00,WeatherDisplay:10.37,2013-08-27 06:05:00,
2013-08-27 02:06:00,68.2,67.6,29.75,NW,315,0.0,0.0,98,0.00,CLR,,0.00,WeatherDisplay:10.37,2013-08-27 06:06:00,
2013-08-27 02:07:00,68.2,67.6,29.75,West,270,0.0,0.0,98,0.00,CLR,,0.00,WeatherDisplay:10.37,2013-08-27 06:07:00,
2013-08-27 02:11:00,68.2,67.6,29.75,North,0,0.0,0.0,98,0.00,CLR,,0.00,WeatherDisplay:10.37,2013-08-27 06:11:00,
2013-08-27 02:12:00,68.2,67.6,29.75,NNW,338,0.0,0.0,98,0.00,CLR,,0.00,WeatherDisplay:10.37,2013-08-27 06:12:00,
2013-08-27 02:16:00,68.2,67.6,29.72,WNW,292,0.0,0.0,98,0.00,CLR,,0.00,WeatherDisplay:10.37,2013-08-27 06:16:00,
2013-08-27 02:17:00,68.2,67.6,29.72,NNW,338,0.0,0.0,98,0.00,CLR,,0.00,WeatherDisplay:10.37,2013-08-27 06:17:00,
2013-08-27 02:21:00,68.0,67.4,29.72,NW,315,0.0,0.0,98,0.00,CLR,,0.00,WeatherDisplay:10.37,2013-08-27 06:21:00,
2013-08-27 02:22:00,68.0,67.4,29.72,NW,315,0.0,0.0,98,0.00,CLR,,0.00,WeatherDisplay:10.37,2013-08-27 06:22:00,
2013-08-27 02:26:00,68.0,67.4,29.72,NNW,338,0.0,0.0,98,0.00,CLR,,0.00,WeatherDisplay:10.37,2013-08-27 06:26:00,
2013-08-27 02:27:00,68.0,67.4,29.72,NNW,338,0.0,0.0,98,0.00,CLR,,0.00,WeatherDisplay:10.37,2013-08-27 06:27:00,
2013-08-27 02:32:00,68.0,67.4,29.75,West,270,0.0,0.0,98,0.00,CLR,,0.00,WeatherDisplay:10.37,2013-08-27 06:32:00,
2013-08-27 02:37:00,68.0,67.4,29.75,WNW,292,0.0,0.0,98,0.00,CLR,,0.00,WeatherDisplay:10.37,2013-08-27 06:37:00,
2013-08-27 02:38:00,68.0,67.4,29.75,West,270,0.0,0.0,98,0.00,CLR,,0.00,WeatherDisplay:10.37,2013-08-27 06:38:00,
2013-08-27 02:42:00,68.0,67.4,29.75,WNW,292,0.0,0.0,98,0.00,CLR,,0.00,WeatherDisplay:10.37,2013-08-27 06:42:00,
2013-08-27 02:43:00,68.0,67.4,29.75,West,270,0.0,0.0,98,0.00,CLR,,0.00,WeatherDisplay:10.37,2013-08-27 06:43:00,
2013-08-27 02:47:00,68.0,67.4,29.75,NNW,338,0.0,0.0,98,0.00,CLR,,0.00,WeatherDisplay:10.37,2013-08-27 06:47:00,
2013-08-27 02:48:00,68.0,67.4,29.75,West,270,0.0,0.0,98,0.00,CLR,,0.00,WeatherDisplay:10.37,2013-08-27 06:48:00,
2013-08-27 02:52:00,68.0,67.4,29.75,SSE,158,0.0,0.0,98,0.00,CLR,,0.00,WeatherDisplay:10.37,2013-08-27 06:52:00,
2013-08-27 02:53:00,68.0,67.4,29.75,SSE,158,0.0,0.0,98,0.00,CLR,,0.00,WeatherDisplay:10.37,2013-08-27 06:53:00,
2013-08-27 02:57:00,67.8,67.2,29.75,North,0,0.0,0.0,98,0.00,CLR,,0.00,WeatherDisplay:10.37,2013-08-27 06:57:00,
2013-08-27 02:58:00,67.8,67.2,29.75,North,0,0.0,0.0,98,0.00,CLR,,0.00,WeatherDisplay:10.37,2013-08-27 06:58:00,
2013-08-27 02:59:00,68.0,67.4,29.75,NNW,338,0.0,0.0,98,0.00,CLR,,0.00,WeatherDisplay:10.37,2013-08-27 06:59:00,
2013-08-27 03:02:00,68.0,67.4,29.75,NNE,22,1.2,0.0,98,0.00,CLR,,0.00,WeatherDisplay:10.37,2013-08-27 07:02:00,
2013-08-27 03:03:00,68.0,67.4,29.75,NNE,22,0.0,0.0,98,0.00,CLR,,0.00,WeatherDisplay:10.37,2013-08-27 07:03:00,
2013-08-27 03:04:00,68.0,67.4,29.75,West,270,0.0,0.0,98,0.00,CLR,,0.00,WeatherDisplay:10.37,2013-08-27 07:04:00,
2013-08-27 03:08:00,68.0,67.4,29.75,WSW,248,0.0,0.0,98,0.00,CLR,,0.00,WeatherDisplay:10.37,2013-08-27 07:08:00,
2013-08-27 03:09:00,68.2,67.6,29.75,WNW,292,0.0,0.0,98,0.00,CLR,,0.00,WeatherDisplay:10.37,2013-08-27 07:09:00,
2013-08-27 03:13:00,68.2,67.6,29.75,NW,315,0.0,0.0,98,0.00,CLR,,0.00,WeatherDisplay:10.37,2013-08-27 07:13:00,
2013-08-27 03:14:00,68.2,67.6,29.75,West,270,0.0,0.0,98,0.00,CLR,,0.00,WeatherDisplay:10.37,2013-08-27 07:14:00,
2013-08-27 03:15:00,68.2,67.6,29.75,NNW,338,0.0,0.0,98,0.00,CLR,,0.00,WeatherDisplay:10.37,2013-08-27 07:15:00,
2013-08-27 03:18:00,68.2,67.6,29.75,SW,225,0.0,0.0,98,0.00,CLR,,0.00,WeatherDisplay:10.37,2013-08-27 07:18:00,
2013-08-27 03:19:00,68.2,67.6,29.75,SW,225,0.0,0.0,98,0.00,CLR,,0.00,WeatherDisplay:10.37,2013-08-27 07:19:00,
2013-08-27 03:20:00,68.2,67.6,29.75,NNW,338,0.0,0.0,98,0.00,CLR,,0.00,WeatherDisplay:10.37,2013-08-27 07:20:00,
2013-08-27 03:23:00,68.4,67.8,29.75,WNW,292,0.0,0.0,98,0.00,CLR,,0.00,WeatherDisplay:10.37,2013-08-27 07:23:00,
2013-08-27 03:24:00,68.4,67.8,29.75,WNW,292,0.0,0.0,98,0.00,CLR,,0.00,WeatherDisplay:10.37,2013-08-27 07:24:00,
2013-08-27 03:25:00,68.4,67.8,29.75,WSW,248,0.0,0.0,98,0.00,CLR,,0.00,WeatherDisplay:10.37,2013-08-27 07:25:00,
2013-08-27 03:29:00,68.4,67.8,29.72,West,270,1.2,0.0,98,0.00,CLR,,0.00,WeatherDisplay:10.37,2013-08-27 07:29:00,
2013-08-27 03:30:00,68.5,68.0,29.72,WSW,248,0.0,0.0,98,0.00,CLR,,0.00,WeatherDisplay:10.37,2013-08-27 07:30:00,
2013-08-27 03:31:00,68.5,68.0,29.72,WSW,248,0.0,0.0,98,0.00,CLR,,0.00,WeatherDisplay:10.37,2013-08-27 07:31:00,
2013-08-27 03:34:00,68.5,68.0,29.72,WNW,292,0.0,0.0,98,0.00,CLR,,0.00,WeatherDisplay:10.37,2013-08-27 07:34:00,
2013-08-27 03:35:00,68.5,68.0,29.72,SSE,158,0.0,0.0,98,0.00,CLR,,0.00,WeatherDisplay:10.37,2013-08-27 07:35:00,
2013-08-27 03:36:00,68.5,68.0,29.72,NW,315,0.0,0.0,98,0.00,CLR,,0.00,WeatherDisplay:10.37,2013-08-27 07:36:00,
2013-08-27 03:39:00,68.5,68.0,29.72,WNW,292,0.0,0.0,98,0.00,CLR,,0.00,WeatherDisplay:10.37,2013-08-27 07:39:00,
2013-08-27 03:40:00,68.5,68.0,29.72,WNW,292,0.0,0.0,98,0.00,CLR,,0.00,WeatherDisplay:10.37,2013-08-27 07:40:00,
2013-08-27 03:42:00,68.5,68.0,29.72,NW,315,2.3,0.0,98,0.00,CLR,,0.00,WeatherDisplay:10.37,2013-08-27 07:42:00,
2013-08-27 03:44:00,68.5,68.0,29.72,SSW,202,2.3,2.3,98,0.00,CLR,,0.00,WeatherDisplay:10.37,2013-08-27 07:44:00,
2013-08-27 03:45:00,68.5,68.0,29.72,SSW,202,2.3,2.3,98,0.00,CLR,,0.00,WeatherDisplay:10.37,2013-08-27 07:45:00,
2013-08-27 03:47:00,68.5,68.0,29.72,WNW,292,3.5,0.0,98,0.00,CLR,,0.00,WeatherDisplay:10.37,2013-08-27 07:47:00,
2013-08-27 03:50:00,68.5,68.0,29.72,WNW,292,0.0,0.0,98,0.00,CLR,,0.00,WeatherDisplay:10.37,2013-08-27 07:50:00,
2013-08-27 03:51:00,68.5,68.0,29.72,NW,315,0.0,0.0,98,0.00,CLR,,0.00,WeatherDisplay:10.37,2013-08-27 07:51:00,
2013-08-27 03:52:00,68.7,68.1,29.72,North,0,0.0,0.0,98,0.00,CLR,,0.00,WeatherDisplay:10.37,2013-08-27 07:52:00,
2013-08-27 03:55:00,68.7,68.1,29.72,NW,315,0.0,0.0,98,0.00,CLR,,0.00,WeatherDisplay:10.37,2013-08-27 07:55:00,
2013-08-27 03:56:00,68.7,68.1,29.72,NW,315,1.2,0.0,98,0.00,CLR,,0.00,WeatherDisplay:10.37,2013-08-27 07:56:00,
2013-08-27 03:57:00,68.7,68.1,29.72,NW,315,0.0,0.0,98,0.00,CLR,,0.00,WeatherDisplay:10.37,2013-08-27 07:57:00,
2013-08-27 04:00:00,68.7,68.1,29.72,WNW,292,0.0,0.0,98,0.00,CLR,,0.00,WeatherDisplay:10.37,2013-08-27 08:00:00,
2013-08-27 04:01:00,68.7,68.1,29.72,WNW,292,0.0,0.0,98,0.00,CLR,,0.00,WeatherDisplay:10.37,2013-08-27 08:01:00,
2013-08-27 04:02:00,68.7,68.1,29.72,West,270,0.0,0.0,98,0.00,CLR,,0.00,WeatherDisplay:10.37,2013-08-27 08:02:00,
2013-08-27 04:05:00,68.9,68.3,29.72,NW,315,3.5,3.5,98,0.00,CLR,,0.00,WeatherDisplay:10.37,2013-08-27 08:05:00,
2013-08-27 04:06:00,68.9,68.3,29.72,NW,315,3.5,3.5,98,0.00,CLR,,0.00,WeatherDisplay:10.37,2013-08-27 08:06:00,
2013-08-27 04:07:00,68.9,68.3,29.72,WNW,292,2.3,2.3,98,0.00,CLR,,0.00,WeatherDisplay:10.37,2013-08-27 08:07:00,
2013-08-27 04:10:00,68.9,68.3,29.72,SSW,202,1.6,1.6,98,0.00,CLR,,0.00,WeatherDisplay:10.37,2013-08-27 08:10:00,
2013-08-27 04:11:00,68.9,68.3,29.72,West,270,2.3,2.3,98,0.00,CLR,,0.00,WeatherDisplay:10.37,2013-08-27 08:11:00,
2013-08-27 04:12:00,68.9,68.3,29.72,North,0,4.6,4.6,98,0.00,CLR,,0.00,WeatherDisplay:10.37,2013-08-27 08:12:00,
2013-08-27 04:15:00,68.9,68.3,29.75,NNW,338,2.6,0.0,98,0.00,CLR,,0.00,WeatherDisplay:10.37,2013-08-27 08:15:00,
2013-08-27 04:16:00,68.9,68.3,29.75,North,0,4.6,0.0,98,0.00,CLR,,0.00,WeatherDisplay:10.37,2013-08-27 08:16:00,
2013-08-27 04:17:00,68.9,68.3,29.75,SSE,158,4.6,4.6,98,0.00,CLR,,0.00,WeatherDisplay:10.37,2013-08-27 08:17:00,
2013-08-27 04:20:00,68.9,68.3,29.75,West,270,1.2,0.0,98,0.00,CLR,,0.00,WeatherDisplay:10.37,2013-08-27 08:20:00,
2013-08-27 04:21:00,68.9,68.3,29.75,North,0,1.2,0.0,98,0.00,CLR,,0.00,WeatherDisplay:10.37,2013-08-27 08:21:00,
2013-08-27 04:22:00,68.9,68.3,29.75,NNW,338,1.2,0.0,98,0.00,CLR,,0.00,WeatherDisplay:10.37,2013-08-27 08:22:00,
2013-08-27 04:26:00,68.9,68.3,29.75,WNW,292,0.0,0.0,98,0.00,CLR,,0.00,WeatherDisplay:10.37,2013-08-27 08:26:00,
2013-08-27 04:27:00,68.9,68.3,29.75,WSW,248,2.3,2.3,98,0.00,CLR,,0.00,WeatherDisplay:10.37,2013-08-27 08:27:00,
2013-08-27 04:31:00,68.9,68.3,29.75,NW,315,4.6,4.6,98,0.00,CLR,,0.00,WeatherDisplay:10.37,2013-08-27 08:31:00,
2013-08-27 04:32:00,68.9,68.3,29.75,NW,315,3.5,3.5,98,0.00,CLR,,0.00,WeatherDisplay:10.37,2013-08-27 08:32:00,
2013-08-27 04:33:00,68.9,68.3,29.75,NW,315,1.2,1.4,98,0.00,CLR,,0.00,WeatherDisplay:10.37,2013-08-27 08:33:00,
2013-08-27 04:36:00,68.9,68.3,29.75,WNW,292,1.6,1.6,98,0.00,CLR,,0.00,WeatherDisplay:10.37,2013-08-27 08:36:00,
2013-08-27 04:37:00,68.9,68.3,29.75,West,270,1.2,1.2,98,0.00,CLR,,0.00,WeatherDisplay:10.37,2013-08-27 08:37:00,
2013-08-27 04:38:00,68.9,68.3,29.75,SSE,158,0.0,0.0,98,0.00,CLR,,0.00,WeatherDisplay:10.37,2013-08-27 08:38:00,
2013-08-27 04:41:00,68.9,68.3,29.75,WNW,292,1.2,0.0,98,0.00,CLR,,0.00,WeatherDisplay:10.37,2013-08-27 08:41:00,
2013-08-27 04:42:00,68.9,68.3,29.75,WNW,292,1.2,0.0,98,0.00,CLR,,0.00,WeatherDisplay:10.37,2013-08-27 08:42:00,
2013-08-27 04:43:00,68.9,68.3,29.72,NW,315,1.6,0.0,98,0.00,CLR,,0.00,WeatherDisplay:10.37,2013-08-27 08:43:00,
2013-08-27 04:46:00,68.9,68.3,29.72,ENE,68,0.0,0.0,98,0.00,CLR,,0.00,WeatherDisplay:10.37,2013-08-27 08:46:00,
2013-08-27 04:47:00,68.9,68.3,29.72,ENE,68,0.0,0.0,98,0.00,CLR,,0.00,WeatherDisplay:10.37,2013-08-27 08:47:00,
2013-08-27 04:48:00,68.9,68.3,29.72,WNW,292,1.2,0.0,98,0.00,CLR,,0.00,WeatherDisplay:10.37,2013-08-27 08:48:00,
2013-08-27 04:51:00,68.9,68.3,29.72,NW,315,0.0,0.0,98,0.00,CLR,,0.00,WeatherDisplay:10.37,2013-08-27 08:51:00,
2013-08-27 04:52:00,68.9,68.3,29.72,NW,315,0.0,0.0,98,0.00,CLR,,0.00,WeatherDisplay:10.37,2013-08-27 08:52:00,
2013-08-27 04:53:00,68.9,68.3,29.72,NW,315,0.0,0.0,98,0.00,CLR,,0.00,WeatherDisplay:10.37,2013-08-27 08:53:00,
2013-08-27 04:56:00,68.9,68.3,29.72,WNW,292,2.3,2.3,98,0.00,CLR,,0.00,WeatherDisplay:10.37,2013-08-27 08:56:00,
2013-08-27 04:57:00,68.9,68.3,29.72,SW,225,2.3,0.0,98,0.00,CLR,,0.00,WeatherDisplay:10.37,2013-08-27 08:57:00,
2013-08-27 04:58:00,68.9,68.3,29.72,NNW,338,0.0,0.0,98,0.00,CLR,,0.00,WeatherDisplay:10.37,2013-08-27 08:58:00,
2013-08-27 04:59:00,68.9,68.3,29.72,NW,315,0.0,0.0,98,0.00,CLR,,0.00,WeatherDisplay:10.37,2013-08-27 08:59:00,
2013-08-27 05:02:00,68.9,68.3,29.72,WNW,292,0.0,0.0,98,0.00,CLR,,0.00,WeatherDisplay:10.37,2013-08-27 09:02:00,
2013-08-27 05:04:00,68.9,68.3,29.72,NW,315,2.3,0.0,98,0.00,CLR,,0.00,WeatherDisplay:10.37,2013-08-27 09:04:00,
2013-08-27 05:07:00,68.9,68.3,29.72,NNW,338,0.0,0.0,98,0.00,CLR,,0.00,WeatherDisplay:10.37,2013-08-27 09:07:00,
2013-08-27 05:09:00,68.9,68.3,29.72,NW,315,0.0,0.0,98,0.00,CLR,,0.00,WeatherDisplay:10.37,2013-08-27 09:09:00,
2013-08-27 05:12:00,68.9,68.3,29.72,WNW,292,3.5,0.0,98,0.00,CLR,,0.00,WeatherDisplay:10.37,2013-08-27 09:12:00,
2013-08-27 05:13:00,68.9,68.3,29.72,WNW,292,0.0,0.0,98,0.00,CLR,,0.00,WeatherDisplay:10.37,2013-08-27 09:13:00,
2013-08-27 05:14:00,68.7,68.1,29.72,WNW,292,0.0,0.0,98,0.00,CLR,,0.00,WeatherDisplay:10.37,2013-08-27 09:14:00,
2013-08-27 05:18:00,68.7,68.1,29.72,WNW,292,0.0,0.0,98,0.00,CLR,,0.00,WeatherDisplay:10.37,2013-08-27 09:18:00,
2013-08-27 05:19:00,68.7,68.1,29.72,WNW,292,0.0,0.0,98,0.00,CLR,,0.00,WeatherDisplay:10.37,2013-08-27 09:19:00,
2013-08-27 05:23:00,68.7,68.1,29.72,WNW,292,0.0,0.0,98,0.00,CLR,,0.00,WeatherDisplay:10.37,2013-08-27 09:23:00,
2013-08-27 05:24:00,68.7,68.1,29.72,WNW,292,0.0,0.0,98,0.00,CLR,,0.00,WeatherDisplay:10.37,2013-08-27 09:24:00,
2013-08-27 05:25:00,68.7,68.1,29.72,WNW,292,0.0,0.0,98,0.00,CLR,,0.00,WeatherDisplay:10.37,2013-08-27 09:25:00,
2013-08-27 05:28:00,68.7,68.1,29.75,WNW,292,1.2,0.0,98,0.00,CLR,,0.00,WeatherDisplay:10.37,2013-08-27 09:28:00,
2013-08-27 05:29:00,68.7,68.1,29.75,WNW,292,0.0,0.0,98,0.00,CLR,,0.00,WeatherDisplay:10.37,2013-08-27 09:29:00,
2013-08-27 05:30:00,68.7,68.1,29.75,WNW,292,0.0,0.0,98,0.00,CLR,,0.00,WeatherDisplay:10.37,2013-08-27 09:30:00,
2013-08-27 05:33:00,68.5,68.0,29.75,WNW,292,2.6,0.0,98,0.00,CLR,,0.00,WeatherDisplay:10.37,2013-08-27 09:33:00,
2013-08-27 05:35:00,68.5,68.0,29.75,WNW,292,2.6,0.0,98,0.00,CLR,,0.00,WeatherDisplay:10.37,2013-08-27 09:35:00,
2013-08-27 05:38:00,68.5,68.0,29.75,WNW,292,2.6,0.0,98,0.00,CLR,,0.00,WeatherDisplay:10.37,2013-08-27 09:38:00,
2013-08-27 05:39:00,68.5,68.0,29.75,WNW,292,2.6,0.0,98,0.00,CLR,,0.00,WeatherDisplay:10.37,2013-08-27 09:39:00,
2013-08-27 05:40:00,68.5,68.0,29.75,WNW,292,2.6,0.0,98,0.00,CLR,,0.00,WeatherDisplay:10.37,2013-08-27 09:40:00,
2013-08-27 05:44:00,68.5,68.0,29.75,WNW,292,2.6,0.0,98,0.00,CLR,,0.00,WeatherDisplay:10.37,2013-08-27 09:44:00,
2013-08-27 05:45:00,68.5,68.0,29.75,WNW,292,2.3,0.0,98,0.00,CLR,,0.00,WeatherDisplay:10.37,2013-08-27 09:45:00,
2013-08-27 05:46:00,68.4,67.8,29.75,WNW,292,2.3,0.0,98,0.00,CLR,,0.00,WeatherDisplay:10.37,2013-08-27 09:46:00,
2013-08-27 05:49:00,68.5,68.0,29.75,North,0,0.0,0.0,98,0.00,CLR,,0.00,WeatherDisplay:10.37,2013-08-27 09:49:00,
2013-08-27 05:50:00,68.4,67.8,29.75,West,270,0.0,0.0,98,0.00,CLR,,0.00,WeatherDisplay:10.37,2013-08-27 09:50:00,
2013-08-27 05:51:00,68.4,67.8,29.75,West,270,0.0,0.0,98,0.00,CLR,,0.00,WeatherDisplay:10.37,2013-08-27 09:51:00,
2013-08-27 05:54:00,68.4,67.8,29.75,West,270,0.0,0.0,98,0.00,CLR,,0.00,WeatherDisplay:10.37,2013-08-27 09:54:00,
2013-08-27 05:55:00,68.4,67.8,29.75,West,270,0.0,0.0,98,0.00,CLR,,0.00,WeatherDisplay:10.37,2013-08-27 09:55:00,
2013-08-27 05:56:00,68.4,67.8,29.75,West,270,0.0,0.0,98,0.00,CLR,,0.00,WeatherDisplay:10.37,2013-08-27 09:56:00,
2013-08-27 05:59:00,68.4,67.8,29.75,West,270,0.0,0.0,98,0.00,CLR,,0.00,WeatherDisplay:10.37,2013-08-27 09:59:00,
2013-08-27 06:00:00,68.4,67.8,29.75,WNW,292,0.0,0.0,98,0.00,CLR,,0.00,WeatherDisplay:10.37,2013-08-27 10:00:00,
2013-08-27 06:01:00,68.4,67.8,29.75,WNW,292,0.0,0.0,98,0.00,CLR,,0.00,WeatherDisplay:10.37,2013-08-27 10:01:00,
2013-08-27 06:04:00,68.4,67.8,29.75,WNW,292,0.0,0.0,98,0.00,CLR,,0.00,WeatherDisplay:10.37,2013-08-27 10:04:00,
2013-08-27 06:05:00,68.4,67.8,29.75,WNW,292,0.0,0.0,98,0.00,CLR,,0.00,WeatherDisplay:10.37,2013-08-27 10:05:00,
2013-08-27 06:06:00,68.4,67.8,29.75,North,0,0.0,0.0,98,0.00,CLR,,0.00,WeatherDisplay:10.37,2013-08-27 10:06:00,
2013-08-27 06:07:00,68.4,67.8,29.75,North,0,0.0,0.0,98,0.00,CLR,,0.00,WeatherDisplay:10.37,2013-08-27 10:07:00,
2013-08-27 06:09:00,68.4,67.8,29.75,North,0,0.0,0.0,98,0.00,CLR,,0.00,WeatherDisplay:10.37,2013-08-27 10:09:00,
2013-08-27 06:10:00,68.4,67.8,29.75,NNW,338,3.6,0.0,98,0.00,CLR,,0.00,WeatherDisplay:10.37,2013-08-27 10:10:00,
2013-08-27 06:11:00,68.4,67.8,29.75,NNW,338,3.6,0.0,98,0.00,CLR,,0.00,WeatherDisplay:10.37,2013-08-27 10:11:00,
2013-08-27 06:12:00,68.4,67.8,29.75,NNW,338,3.6,0.0,98,0.00,CLR,,0.00,WeatherDisplay:10.37,2013-08-27 10:12:00,
2013-08-27 06:14:00,68.4,67.8,29.75,WNW,292,0.0,0.0,98,0.00,CLR,,0.00,WeatherDisplay:10.37,2013-08-27 10:14:00,
2013-08-27 06:15:00,68.4,67.8,29.75,WNW,292,0.0,0.0,98,0.00,CLR,,0.00,WeatherDisplay:10.37,2013-08-27 10:15:00,
2013-08-27 06:16:00,68.4,67.8,29.75,WNW,292,3.6,3.6,98,0.00,CLR,,0.00,WeatherDisplay:10.37,2013-08-27 10:16:00,
2013-08-27 06:17:00,68.4,67.8,29.75,WNW,292,3.5,3.5,98,0.00,CLR,,0.00,WeatherDisplay:10.37,2013-08-27 10:17:00,
2013-08-27 06:20:00,68.4,67.8,29.75,NW,315,0.0,0.0,98,0.00,CLR,,0.00,WeatherDisplay:10.37,2013-08-27 10:20:00,
2013-08-27 06:21:00,68.4,67.8,29.75,West,270,0.9,1.2,98,0.00,CLR,,0.00,WeatherDisplay:10.37,2013-08-27 10:21:00,
2013-08-27 06:22:00,68.4,67.8,29.75,WNW,292,1.2,1.2,98,0.00,CLR,,0.00,WeatherDisplay:10.37,2013-08-27 10:22:00,
2013-08-27 06:25:00,68.4,67.8,29.75,NW,315,0.0,2.2,98,0.00,CLR,,0.00,WeatherDisplay:10.37,2013-08-27 10:25:00,
2013-08-27 06:26:00,68.4,67.8,29.75,NW,315,0.0,2.2,98,0.00,CLR,,0.00,WeatherDisplay:10.37,2013-08-27 10:26:00,
2013-08-27 06:27:00,68.4,67.8,29.75,WSW,248,1.4,2.0,98,0.00,CLR,,0.00,WeatherDisplay:10.37,2013-08-27 10:27:00,
2013-08-27 06:30:00,68.4,67.8,29.75,WNW,292,3.5,0.0,98,0.00,CLR,,0.00,WeatherDisplay:10.37,2013-08-27 10:30:00,
2013-08-27 06:31:00,68.4,67.8,29.75,WNW,292,3.5,0.0,98,0.00,CLR,,0.00,WeatherDisplay:10.37,2013-08-27 10:31:00,
2013-08-27 06:32:00,68.4,67.8,29.75,WNW,292,0.0,0.0,98,0.00,CLR,,0.00,WeatherDisplay:10.37,2013-08-27 10:32:00,
2013-08-27 06:35:00,68.2,67.6,29.75,NW,315,0.0,1.4,98,0.00,CLR,,0.00,WeatherDisplay:10.37,2013-08-27 10:35:00,
2013-08-27 06:36:00,68.2,67.6,29.75,NW,315,0.0,1.4,98,0.00,CLR,,0.00,WeatherDisplay:10.37,2013-08-27 10:36:00,
2013-08-27 06:38:00,68.2,67.6,29.75,NW,315,0.0,1.4,98,0.00,CLR,,0.00,WeatherDisplay:10.37,2013-08-27 10:38:00,
2013-08-27 06:40:00,68.2,67.6,29.75,NW,315,0.0,1.4,98,0.00,CLR,,0.00,WeatherDisplay:10.37,2013-08-27 10:40:00,
2013-08-27 06:41:00,68.2,67.6,29.75,NW,315,0.0,1.4,98,0.00,CLR,,0.00,WeatherDisplay:10.37,2013-08-27 10:41:00,
2013-08-27 06:43:00,68.2,67.6,29.75,NW,315,0.0,1.4,98,0.00,CLR,,0.00,WeatherDisplay:10.37,2013-08-27 10:43:00,
2013-08-27 06:46:00,68.2,67.6,29.75,NW,315,0.0,1.4,98,0.00,CLR,,0.00,WeatherDisplay:10.37,2013-08-27 10:46:00,
2013-08-27 06:47:00,68.2,67.6,29.75,NW,315,0.0,1.4,98,0.00,CLR,,0.00,WeatherDisplay:10.37,2013-08-27 10:47:00,
2013-08-27 06:48:00,68.2,67.6,29.75,NW,315,0.0,1.4,98,0.00,CLR,,0.00,WeatherDisplay:10.37,2013-08-27 10:48:00,
2013-08-27 06:49:00,68.2,67.6,29.75,NW,315,0.0,1.4,98,0.00,CLR,,0.00,WeatherDisplay:10.37,2013-08-27 10:49:00,
2013-08-27 06:51:00,68.2,67.6,29.75,NW,315,0.0,1.4,98,0.00,CLR,,0.00,WeatherDisplay:10.37,2013-08-27 10:51:00,
2013-08-27 06:52:00,68.0,67.4,29.75,NW,315,0.0,1.4,98,0.00,CLR,,0.00,WeatherDisplay:10.37,2013-08-27 10:52:00,
2013-08-27 06:53:00,68.0,67.4,29.75,NW,315,0.0,1.4,98,0.00,CLR,,0.00,WeatherDisplay:10.37,2013-08-27 10:53:00,
2013-08-27 06:54:00,68.0,67.4,29.75,NW,315,0.0,1.4,98,0.00,CLR,,0.00,WeatherDisplay:10.37,2013-08-27 10:54:00,
2013-08-27 06:56:00,68.0,67.4,29.75,NW,315,0.0,1.4,98,0.00,CLR,,0.00,WeatherDisplay:10.37,2013-08-27 10:56:00,
2013-08-27 06:57:00,68.0,67.4,29.75,NW,315,3.5,0.0,98,0.00,CLR,,0.00,WeatherDisplay:10.37,2013-08-27 10:57:00,
2013-08-27 06:59:00,68.0,67.4,29.75,NNE,22,1.2,0.0,98,0.00,CLR,,0.00,WeatherDisplay:10.37,2013-08-27 10:59:00,
2013-08-27 07:01:00,68.0,67.4,29.75,WNW,292,2.0,2.0,98,0.00,CLR,,0.00,WeatherDisplay:10.37,2013-08-27 11:01:00,
2013-08-27 07:02:00,68.0,67.4,29.75,North,0,3.5,3.5,98,0.00,CLR,,0.00,WeatherDisplay:10.37,2013-08-27 11:02:00,
2013-08-27 07:04:00,68.0,67.4,29.75,WNW,292,1.2,1.4,98,0.00,CLR,,0.00,WeatherDisplay:10.37,2013-08-27 11:04:00,
2013-08-27 07:06:00,68.0,67.4,29.75,West,270,4.6,4.6,98,0.00,CLR,,0.00,WeatherDisplay:10.37,2013-08-27 11:06:00,
2013-08-27 07:07:00,68.2,67.6,29.75,West,270,4.6,4.6,98,0.00,CLR,,0.00,WeatherDisplay:10.37,2013-08-27 11:07:00,
2013-08-27 07:09:00,68.2,67.6,29.75,WSW,248,3.5,3.5,98,0.00,CLR,,0.00,WeatherDisplay:10.37,2013-08-27 11:09:00,
2013-08-27 07:11:00,68.2,67.6,29.75,West,270,1.2,1.2,98,0.00,CLR,,0.00,WeatherDisplay:10.37,2013-08-27 11:11:00,
2013-08-27 07:13:00,68.2,67.6,29.75,East,90,1.2,0.0,98,0.00,CLR,,0.00,WeatherDisplay:10.37,2013-08-27 11:13:00,
2013-08-27 07:14:00,68.2,67.6,29.75,ESE,112,0.0,0.0,98,0.00,CLR,,0.00,WeatherDisplay:10.37,2013-08-27 11:14:00,
2013-08-27 07:15:00,68.2,67.6,29.75,East,90,0.0,0.0,98,0.00,CLR,,0.00,WeatherDisplay:10.37,2013-08-27 11:15:00,
2013-08-27 07:16:00,68.2,67.6,29.75,WNW,292,0.0,0.0,98,0.00,CLR,,0.00,WeatherDisplay:10.37,2013-08-27 11:16:00,
2013-08-27 07:18:00,68.2,67.6,29.75,WNW,292,0.0,0.0,98,0.00,CLR,,0.00,WeatherDisplay:10.37,2013-08-27 11:18:00,
2013-08-27 07:20:00,68.2,67.6,29.75,NNW,338,0.0,1.2,98,0.00,CLR,,0.00,WeatherDisplay:10.37,2013-08-27 11:20:00,
2013-08-27 07:21:00,68.2,67.6,29.75,WNW,292,0.0,0.0,98,0.00,CLR,,0.00,WeatherDisplay:10.37,2013-08-27 11:21:00,
2013-08-27 07:23:00,68.2,67.6,29.75,WNW,292,0.0,0.0,98,0.00,CLR,,0.00,WeatherDisplay:10.37,2013-08-27 11:23:00,
2013-08-27 07:25:00,68.2,67.6,29.75,WNW,292,3.5,3.5,98,0.00,CLR,,0.00,WeatherDisplay:10.37,2013-08-27 11:25:00,
2013-08-27 07:26:00,68.4,67.8,29.75,WNW,292,2.3,2.3,98,0.00,CLR,,0.00,WeatherDisplay:10.37,2013-08-27 11:26:00,
2013-08-27 07:27:00,68.4,67.8,29.75,WNW,292,0.0,1.4,98,0.00,CLR,,0.00,WeatherDisplay:10.37,2013-08-27 11:27:00,
2013-08-27 07:28:00,68.4,67.8,29.75,NW,315,2.2,0.0,98,0.00,CLR,,0.00,WeatherDisplay:10.37,2013-08-27 11:28:00,
2013-08-27 07:30:00,68.4,67.8,29.75,South,180,2.3,0.0,98,0.00,CLR,,0.00,WeatherDisplay:10.37,2013-08-27 11:30:00,
2013-08-27 07:32:00,68.4,67.8,29.75,West,270,0.0,0.0,98,0.00,CLR,,0.00,WeatherDisplay:10.37,2013-08-27 11:32:00,
2013-08-27 07:33:00,68.4,67.8,29.75,NW,315,0.0,0.0,98,0.00,CLR,,0.00,WeatherDisplay:10.37,2013-08-27 11:33:00,
2013-08-27 07:35:00,68.4,67.8,29.75,NW,315,0.0,0.0,98,0.00,CLR,,0.00,WeatherDisplay:10.37,2013-08-27 11:35:00,
2013-08-27 07:36:00,68.4,67.8,29.75,NW,315,0.0,0.0,98,0.00,CLR,,0.00,WeatherDisplay:10.37,2013-08-27 11:36:00,
2013-08-27 07:37:00,68.4,67.8,29.75,NW,315,0.0,0.0,98,0.00,CLR,,0.00,WeatherDisplay:10.37,2013-08-27 11:37:00,
2013-08-27 07:39:00,68.5,68.0,29.75,East,90,0.0,0.0,98,0.00,CLR,,0.00,WeatherDisplay:10.37,2013-08-27 11:39:00,
2013-08-27 07:41:00,68.5,68.0,29.75,WNW,292,0.0,0.0,98,0.00,CLR,,0.00,WeatherDisplay:10.37,2013-08-27 11:41:00,
2013-08-27 07:42:00,68.5,68.0,29.75,WNW,292,0.0,0.0,98,0.00,CLR,,0.00,WeatherDisplay:10.37,2013-08-27 11:42:00,
2013-08-27 07:44:00,68.7,68.1,29.75,NNW,338,1.6,0.0,98,0.00,CLR,,0.00,WeatherDisplay:10.37,2013-08-27 11:44:00,
2013-08-27 07:46:00,68.7,68.1,29.75,NNW,338,1.6,0.0,98,0.00,CLR,,0.00,WeatherDisplay:10.37,2013-08-27 11:46:00,
2013-08-27 07:47:00,68.7,68.1,29.75,NW,315,1.6,0.0,98,0.00,CLR,,0.00,WeatherDisplay:10.37,2013-08-27 11:47:00,
2013-08-27 07:48:00,68.7,68.1,29.75,WNW,292,1.2,0.0,98,0.00,CLR,,0.00,WeatherDisplay:10.37,2013-08-27 11:48:00,
2013-08-27 07:50:00,68.7,68.1,29.75,NNW,338,1.2,0.0,98,0.00,CLR,,0.00,WeatherDisplay:10.37,2013-08-27 11:50:00,
2013-08-27 07:51:00,68.7,68.1,29.75,NE,45,2.3,2.3,98,0.00,CLR,,0.00,WeatherDisplay:10.37,2013-08-27 11:51:00,
2013-08-27 07:52:00,68.7,68.1,29.75,NE,45,2.3,0.0,98,0.00,CLR,,0.00,WeatherDisplay:10.37,2013-08-27 11:52:00,
2013-08-27 07:53:00,68.7,68.1,29.75,NE,45,0.0,0.0,98,0.00,CLR,,0.00,WeatherDisplay:10.37,2013-08-27 11:53:00,
2013-08-27 07:55:00,68.9,68.3,29.75,West,270,0.0,0.0,98,0.00,CLR,,0.00,WeatherDisplay:10.37,2013-08-27 11:55:00,
2013-08-27 07:56:00,68.9,68.3,29.75,NNW,338,2.4,0.0,98,0.00,CLR,,0.00,WeatherDisplay:10.37,2013-08-27 11:56:00,
2013-08-27 07:57:00,68.9,68.3,29.75,WNW,292,2.3,2.3,98,0.00,CLR,,0.00,WeatherDisplay:10.37,2013-08-27 11:57:00,
2013-08-27 07:58:00,68.9,68.3,29.75,NW,315,2.6,2.6,98,0.00,CLR,,0.00,WeatherDisplay:10.37,2013-08-27 11:58:00,
2013-08-27 08:00:00,68.9,68.3,29.75,East,90,2.3,2.3,98,0.00,CLR,,0.00,WeatherDisplay:10.37,2013-08-27 12:00:00,
2013-08-27 08:01:00,68.9,68.3,29.75,East,90,0.0,0.0,98,0.00,CLR,,0.00,WeatherDisplay:10.37,2013-08-27 12:01:00,
2013-08-27 08:02:00,68.9,68.3,29.75,SSW,202,0.0,0.0,98,0.00,CLR,,0.00,WeatherDisplay:10.37,2013-08-27 12:02:00,
2013-08-27 08:03:00,68.9,68.3,29.75,ENE,68,0.0,0.0,98,0.00,CLR,,0.00,WeatherDisplay:10.37,2013-08-27 12:03:00,
2013-08-27 08:04:00,68.9,68.3,29.75,NNW,338,0.0,0.0,98,0.00,CLR,,0.00,WeatherDisplay:10.37,2013-08-27 12:04:00,
2013-08-27 08:06:00,69.1,68.5,29.75,NW,315,0.0,0.0,98,0.00,CLR,,0.00,WeatherDisplay:10.37,2013-08-27 12:06:00,
2013-08-27 08:07:00,69.1,68.5,29.75,North,0,0.0,0.0,98,0.00,CLR,,0.00,WeatherDisplay:10.37,2013-08-27 12:07:00,
2013-08-27 08:08:00,69.1,68.5,29.75,ENE,68,0.0,0.0,98,0.00,CLR,,0.00,WeatherDisplay:10.37,2013-08-27 12:08:00,
2013-08-27 08:10:00,69.1,68.5,29.75,NNW,338,0.0,0.0,98,0.00,CLR,,0.00,WeatherDisplay:10.37,2013-08-27 12:10:00,
2013-08-27 08:11:00,69.1,68.5,29.75,ENE,68,0.0,0.0,98,0.00,CLR,,0.00,WeatherDisplay:10.37,2013-08-27 12:11:00,
2013-08-27 08:12:00,69.3,68.7,29.75,ENE,68,0.0,0.0,98,0.00,CLR,,0.00,WeatherDisplay:10.37,2013-08-27 12:12:00,
2013-08-27 08:13:00,69.3,68.7,29.75,North,0,0.0,0.0,98,0.00,CLR,,0.00,WeatherDisplay:10.37,2013-08-27 12:13:00,
2013-08-27 08:15:00,69.3,68.7,29.75,SSW,202,0.0,0.0,98,0.00,CLR,,0.00,WeatherDisplay:10.37,2013-08-27 12:15:00,
2013-08-27 08:16:00,69.3,68.7,29.75,WNW,292,0.0,0.0,98,0.00,CLR,,0.00,WeatherDisplay:10.37,2013-08-27 12:16:00,
2013-08-27 08:18:00,69.3,68.7,29.75,NNW,338,0.0,0.0,98,0.00,CLR,,0.00,WeatherDisplay:10.37,2013-08-27 12:18:00,
2013-08-27 08:20:00,69.3,68.7,29.75,West,270,0.0,0.0,98,0.00,CLR,,0.00,WeatherDisplay:10.37,2013-08-27 12:20:00,
2013-08-27 08:21:00,69.3,68.7,29.75,WSW,248,0.0,0.0,98,0.00,CLR,,0.00,WeatherDisplay:10.37,2013-08-27 12:21:00,
2013-08-27 08:22:00,69.3,68.7,29.75,ENE,68,0.0,0.0,98,0.00,CLR,,0.00,WeatherDisplay:10.37,2013-08-27 12:22:00,
2013-08-27 08:23:00,69.4,68.9,29.75,East,90,0.0,0.0,98,0.00,CLR,,0.00,WeatherDisplay:10.37,2013-08-27 12:23:00,
2013-08-27 08:24:00,69.4,68.9,29.75,East,90,0.0,0.0,98,0.00,CLR,,0.00,WeatherDisplay:10.37,2013-08-27 12:24:00,
2013-08-27 08:25:00,69.4,68.9,29.75,WNW,292,0.0,0.0,98,0.00,CLR,,0.00,WeatherDisplay:10.37,2013-08-27 12:25:00,
2013-08-27 08:26:00,69.4,68.9,29.75,WNW,292,0.0,0.0,98,0.00,CLR,,0.00,WeatherDisplay:10.37,2013-08-27 12:26:00,
2013-08-27 08:27:00,69.4,68.9,29.75,WNW,292,0.0,0.0,98,0.00,CLR,,0.00,WeatherDisplay:10.37,2013-08-27 12:27:00,
2013-08-27 08:29:00,69.6,69.0,29.75,WNW,292,0.0,0.0,98,0.00,CLR,,0.00,WeatherDisplay:10.37,2013-08-27 12:29:00,
2013-08-27 08:30:00,69.6,69.0,29.75,WNW,292,0.0,0.0,98,0.00,CLR,,0.00,WeatherDisplay:10.37,2013-08-27 12:30:00,
2013-08-27 08:31:00,69.6,69.0,29.75,WNW,292,0.0,0.0,98,0.00,CLR,,0.00,WeatherDisplay:10.37,2013-08-27 12:31:00,
2013-08-27 08:32:00,69.6,69.0,29.75,SSW,202,0.0,0.0,98,0.00,CLR,,0.00,WeatherDisplay:10.37,2013-08-27 12:32:00,
2013-08-27 08:34:00,69.6,69.0,29.75,WNW,292,0.0,0.0,98,0.00,CLR,,0.00,WeatherDisplay:10.37,2013-08-27 12:34:00,
2013-08-27 08:35:00,69.6,69.0,29.75,WNW,292,0.0,0.0,98,0.00,CLR,,0.00,WeatherDisplay:10.37,2013-08-27 12:35:00,
2013-08-27 08:36:00,69.6,69.0,29.75,West,270,0.0,0.0,98,0.00,CLR,,0.00,WeatherDisplay:10.37,2013-08-27 12:36:00,
2013-08-27 08:37:00,69.6,69.0,29.75,NNE,22,0.0,0.0,98,0.00,CLR,,0.00,WeatherDisplay:10.37,2013-08-27 12:37:00,
2013-08-27 08:39:00,69.6,69.0,29.75,West,270,1.2,1.2,98,0.00,CLR,,0.00,WeatherDisplay:10.37,2013-08-27 12:39:00,
2013-08-27 08:41:00,69.8,69.2,29.75,WSW,248,2.3,0.0,98,0.00,CLR,,0.00,WeatherDisplay:10.37,2013-08-27 12:41:00,
2013-08-27 08:42:00,69.8,69.2,29.75,WSW,248,2.3,0.0,98,0.00,CLR,,0.00,WeatherDisplay:10.37,2013-08-27 12:42:00,
2013-08-27 08:44:00,69.8,69.2,29.75,WNW,292,1.2,0.0,98,0.00,CLR,,0.00,WeatherDisplay:10.37,2013-08-27 12:44:00,
2013-08-27 08:45:00,69.8,69.2,29.75,NE,45,2.3,0.0,98,0.00,CLR,,0.00,WeatherDisplay:10.37,2013-08-27 12:45:00,
2013-08-27 08:46:00,69.8,69.2,29.75,NW,315,2.3,2.3,98,0.00,CLR,,0.00,WeatherDisplay:10.37,2013-08-27 12:46:00,
2013-08-27 08:47:00,69.8,69.2,29.75,North,0,2.4,0.0,98,0.00,CLR,,0.00,WeatherDisplay:10.37,2013-08-27 12:47:00,
2013-08-27 08:49:00,69.8,69.2,29.75,WNW,292,1.2,0.0,98,0.00,CLR,,0.00,WeatherDisplay:10.37,2013-08-27 12:49:00,
2013-08-27 08:50:00,69.8,69.2,29.75,WNW,292,0.0,0.0,98,0.00,CLR,,0.00,WeatherDisplay:10.37,2013-08-27 12:50:00,
2013-08-27 08:51:00,69.8,69.2,29.75,ENE,68,0.0,0.0,98,0.00,CLR,,0.00,WeatherDisplay:10.37,2013-08-27 12:51:00,
2013-08-27 08:52:00,69.8,69.2,29.75,NE,45,2.3,0.0,98,0.00,CLR,,0.00,WeatherDisplay:10.37,2013-08-27 12:52:00,
2013-08-27 08:54:00,69.8,69.2,29.75,WNW,292,1.2,0.0,98,0.00,CLR,,0.00,WeatherDisplay:10.37,2013-08-27 12:54:00,
2013-08-27 08:56:00,69.8,69.2,29.75,WNW,292,4.6,4.6,98,0.00,CLR,,0.00,WeatherDisplay:10.37,2013-08-27 12:56:00,
2013-08-27 08:57:00,69.8,69.2,29.75,ESE,112,4.6,4.6,98,0.00,CLR,,0.00,WeatherDisplay:10.37,2013-08-27 12:57:00,
2013-08-27 08:59:00,69.8,69.2,29.81,NNE,22,0.0,0.0,98,0.00,CLR,,0.00,WeatherDisplay:10.37,2013-08-27 12:59:00,
2013-08-27 09:01:00,69.8,69.2,29.81,East,90,0.0,0.0,98,0.00,CLR,,0.00,WeatherDisplay:10.37,2013-08-27 13:01:00,
2013-08-27 09:02:00,70.0,69.4,29.81,NE,45,0.0,0.0,98,0.00,CLR,,0.00,WeatherDisplay:10.37,2013-08-27 13:02:00,
2013-08-27 09:06:00,70.0,69.4,29.81,ENE,68,0.0,0.0,98,0.00,CLR,,0.00,WeatherDisplay:10.37,2013-08-27 13:06:00,
2013-08-27 09:07:00,70.0,69.4,29.81,NNW,338,0.0,0.0,98,0.00,CLR,,0.00,WeatherDisplay:10.37,2013-08-27 13:07:00,
2013-08-27 09:08:00,70.0,69.4,29.81,NE,45,2.3,0.0,98,0.00,CLR,,0.00,WeatherDisplay:10.37,2013-08-27 13:08:00,
2013-08-27 09:11:00,70.0,69.4,29.81,ENE,68,2.4,0.0,98,0.00,CLR,,0.00,WeatherDisplay:10.37,2013-08-27 13:11:00,
2013-08-27 09:12:00,70.0,69.4,29.81,ENE,68,2.3,2.3,98,0.00,CLR,,0.00,WeatherDisplay:10.37,2013-08-27 13:12:00,
2013-08-27 09:13:00,70.0,69.4,29.81,East,90,2.3,2.3,98,0.00,CLR,,0.00,WeatherDisplay:10.37,2013-08-27 13:13:00,
2013-08-27 09:16:00,70.2,69.6,29.81,West,270,2.3,0.0,98,0.00,CLR,,0.00,WeatherDisplay:10.37,2013-08-27 13:16:00,
2013-08-27 09:17:00,70.2,69.6,29.81,ENE,68,2.3,2.3,98,0.00,CLR,,0.00,WeatherDisplay:10.37,2013-08-27 13:17:00,
2013-08-27 09:18:00,70.2,69.6,29.81,ENE,68,0.0,0.0,98,0.00,CLR,,0.00,WeatherDisplay:10.37,2013-08-27 13:18:00,
2013-08-27 09:21:00,70.3,69.7,29.81,WNW,292,0.0,0.0,98,0.00,CLR,,0.00,WeatherDisplay:10.37,2013-08-27 13:21:00,
2013-08-27 09:22:00,70.3,69.7,29.81,ESE,112,0.0,0.0,98,0.00,CLR,,0.00,WeatherDisplay:10.37,2013-08-27 13:22:00,
2013-08-27 09:23:00,70.5,69.9,29.81,West,270,2.2,2.2,98,0.00,CLR,,0.00,WeatherDisplay:10.37,2013-08-27 13:23:00,
2013-08-27 09:26:00,70.5,69.9,29.81,ESE,112,0.0,0.0,98,0.00,CLR,,0.00,WeatherDisplay:10.37,2013-08-27 13:26:00,
2013-08-27 09:27:00,70.5,69.9,29.81,NNW,338,0.0,0.0,98,0.00,CLR,,0.00,WeatherDisplay:10.37,2013-08-27 13:27:00,
2013-08-27 09:28:00,70.5,69.9,29.81,NW,315,1.2,0.0,98,0.00,CLR,,0.00,WeatherDisplay:10.37,2013-08-27 13:28:00,
2013-08-27 09:31:00,70.7,70.1,29.81,NW,315,0.0,0.0,98,0.00,CLR,,0.00,WeatherDisplay:10.37,2013-08-27 13:31:00,
2013-08-27 09:32:00,70.7,70.1,29.81,ESE,112,0.0,0.0,98,0.00,CLR,,0.00,WeatherDisplay:10.37,2013-08-27 13:32:00,
2013-08-27 09:33:00,70.7,70.1,29.81,ESE,112,0.0,0.0,98,0.00,CLR,,0.00,WeatherDisplay:10.37,2013-08-27 13:33:00,
2013-08-27 09:36:00,71.1,70.5,29.81,NNE,22,0.0,0.0,98,0.00,CLR,,0.00,WeatherDisplay:10.37,2013-08-27 13:36:00,
2013-08-27 09:37:00,71.1,70.5,29.81,ESE,112,0.0,0.0,98,0.00,CLR,,0.00,WeatherDisplay:10.37,2013-08-27 13:37:00,
2013-08-27 09:38:00,71.1,70.5,29.81,ESE,112,0.0,0.0,98,0.00,CLR,,0.00,WeatherDisplay:10.37,2013-08-27 13:38:00,
2013-08-27 09:39:00,71.2,70.6,29.81,WNW,292,0.0,0.0,98,0.00,CLR,,0.00,WeatherDisplay:10.37,2013-08-27 13:39:00,
2013-08-27 09:41:00,71.2,70.6,29.81,NE,45,0.0,0.0,98,0.00,CLR,,0.00,WeatherDisplay:10.37,2013-08-27 13:41:00,
2013-08-27 09:42:00,71.4,70.8,29.81,NE,45,0.0,0.0,98,0.00,CLR,,0.00,WeatherDisplay:10.37,2013-08-27 13:42:00,
2013-08-27 09:43:00,71.4,70.8,29.81,NE,45,0.0,0.0,98,0.00,CLR,,0.00,WeatherDisplay:10.37,2013-08-27 13:43:00,
2013-08-27 09:44:00,71.4,70.8,29.81,NE,45,0.0,0.0,98,0.00,CLR,,0.00,WeatherDisplay:10.37,2013-08-27 13:44:00,
2013-08-27 09:47:00,71.6,71.0,29.81,WNW,292,0.0,0.0,98,0.00,CLR,,0.00,WeatherDisplay:10.37,2013-08-27 13:47:00,
2013-08-27 09:48:00,71.8,71.2,29.81,ESE,112,3.5,0.0,98,0.00,CLR,,0.00,WeatherDisplay:10.37,2013-08-27 13:48:00,
2013-08-27 09:49:00,71.8,71.2,29.81,WNW,292,3.5,0.0,98,0.00,CLR,,0.00,WeatherDisplay:10.37,2013-08-27 13:49:00,
2013-08-27 09:52:00,71.6,71.0,29.81,North,0,0.0,0.0,98,0.00,CLR,,0.00,WeatherDisplay:10.37,2013-08-27 13:52:00,
2013-08-27 09:53:00,71.8,71.2,29.81,WNW,292,0.0,0.0,98,0.00,CLR,,0.00,WeatherDisplay:10.37,2013-08-27 13:53:00,
2013-08-27 09:54:00,71.8,71.2,29.81,WNW,292,4.3,4.3,98,0.00,CLR,,0.00,WeatherDisplay:10.37,2013-08-27 13:54:00,
2013-08-27 09:55:00,71.8,71.2,29.81,NW,315,4.6,4.6,98,0.00,CLR,,0.00,WeatherDisplay:10.37,2013-08-27 13:55:00,
2013-08-27 09:57:00,71.8,71.2,29.81,NE,45,0.0,0.0,98,0.00,CLR,,0.00,WeatherDisplay:10.37,2013-08-27 13:57:00,
2013-08-27 09:58:00,71.8,71.2,29.81,NE,45,0.0,0.0,98,0.00,CLR,,0.00,WeatherDisplay:10.37,2013-08-27 13:58:00,
2013-08-27 09:59:00,72.0,71.4,29.81,NW,315,0.0,0.0,98,0.00,CLR,,0.00,WeatherDisplay:10.37,2013-08-27 13:59:00,
2013-08-27 10:00:00,72.1,71.5,29.81,NW,315,0.0,0.0,98,0.00,CLR,,0.00,WeatherDisplay:10.37,2013-08-27 14:00:00,
2013-08-27 10:02:00,72.5,71.9,29.81,East,90,0.0,0.0,98,0.00,CLR,,0.00,WeatherDisplay:10.37,2013-08-27 14:02:00,
2013-08-27 10:03:00,72.5,71.9,29.81,East,90,0.0,0.0,98,0.00,CLR,,0.00,WeatherDisplay:10.37,2013-08-27 14:03:00,
2013-08-27 10:04:00,72.7,72.1,29.81,East,90,0.0,0.0,98,0.00,CLR,,0.00,WeatherDisplay:10.37,2013-08-27 14:04:00,
2013-08-27 10:05:00,72.9,72.3,29.81,East,90,0.0,0.0,98,0.00,CLR,,0.00,WeatherDisplay:10.37,2013-08-27 14:05:00,
2013-08-27 10:08:00,73.2,72.6,29.81,WNW,292,2.0,0.0,98,0.00,CLR,,0.00,WeatherDisplay:10.37,2013-08-27 14:08:00,
2013-08-27 10:09:00,73.4,72.8,29.81,ENE,68,2.3,0.0,98,0.00,CLR,,0.00,WeatherDisplay:10.37,2013-08-27 14:09:00,
2013-08-27 10:10:00,73.6,72.7,29.81,ESE,112,0.0,0.9,97,0.00,CLR,,0.00,WeatherDisplay:10.37,2013-08-27 14:10:00,
2013-08-27 10:13:00,73.6,72.7,29.81,North,0,0.0,0.0,97,0.00,CLR,,0.00,WeatherDisplay:10.37,2013-08-27 14:13:00,
2013-08-27 10:14:00,73.9,73.0,29.81,ESE,112,0.0,0.0,97,0.00,CLR,,0.00,WeatherDisplay:10.37,2013-08-27 14:14:00,
2013-08-27 10:15:00,73.9,73.0,29.81,ESE,112,0.0,0.0,97,0.00,CLR,,0.00,WeatherDisplay:10.37,2013-08-27 14:15:00,
2013-08-27 10:18:00,73.8,72.5,29.81,ENE,68,1.2,0.0,96,0.00,CLR,,0.00,WeatherDisplay:10.37,2013-08-27 14:18:00,
2013-08-27 10:20:00,73.9,72.4,29.81,ESE,112,0.0,0.0,95,0.00,CLR,,0.00,WeatherDisplay:10.37,2013-08-27 14:20:00,
2013-08-27 10:23:00,73.9,72.1,29.81,ENE,68,0.0,0.0,94,0.00,CLR,,0.00,WeatherDisplay:10.37,2013-08-27 14:23:00,
2013-08-27 10:25:00,73.9,72.1,29.81,ENE,68,0.0,0.0,94,0.00,CLR,,0.00,WeatherDisplay:10.37,2013-08-27 14:25:00,
2013-08-27 10:28:00,73.8,71.6,29.84,ENE,68,0.0,0.0,93,0.00,CLR,,0.00,WeatherDisplay:10.37,2013-08-27 14:28:00,
2013-08-27 10:30:00,73.8,71.3,29.84,NNW,338,0.0,0.0,92,0.00,CLR,,0.00,WeatherDisplay:10.37,2013-08-27 14:30:00,
2013-08-27 10:31:00,73.9,71.5,29.84,ENE,68,0.0,0.0,92,0.00,CLR,,0.00,WeatherDisplay:10.37,2013-08-27 14:31:00,
2013-08-27 10:33:00,73.9,71.5,29.84,ESE,112,0.0,0.0,92,0.00,CLR,,0.00,WeatherDisplay:10.37,2013-08-27 14:33:00,
2013-08-27 10:35:00,74.1,71.6,29.84,East,90,0.0,0.0,92,0.00,CLR,,0.00,WeatherDisplay:10.37,2013-08-27 14:35:00,
2013-08-27 10:36:00,74.1,71.6,29.84,ESE,112,0.0,0.0,92,0.00,CLR,,0.00,WeatherDisplay:10.37,2013-08-27 14:36:00,
2013-08-27 10:39:00,74.1,71.3,29.84,WSW,248,2.3,0.0,91,0.00,CLR,,0.00,WeatherDisplay:10.37,2013-08-27 14:39:00,
2013-08-27 10:40:00,74.1,71.3,29.84,ENE,68,2.3,0.0,91,0.00,CLR,,0.00,WeatherDisplay:10.37,2013-08-27 14:40:00,
2013-08-27 10:41:00,74.1,71.3,29.84,ENE,68,0.0,0.0,91,0.00,CLR,,0.00,WeatherDisplay:10.37,2013-08-27 14:41:00,
2013-08-27 10:44:00,74.1,71.0,29.84,NNW,338,0.0,0.0,90,0.00,CLR,,0.00,WeatherDisplay:10.37,2013-08-27 14:44:00,
2013-08-27 10:46:00,74.3,71.2,29.84,ESE,112,0.0,0.0,90,0.00,CLR,,0.00,WeatherDisplay:10.37,2013-08-27 14:46:00,
2013-08-27 10:47:00,74.3,71.2,29.84,East,90,0.0,0.0,90,0.00,CLR,,0.00,WeatherDisplay:10.37,2013-08-27 14:47:00,
2013-08-27 10:49:00,74.3,71.2,29.84,East,90,0.0,0.0,90,0.00,CLR,,0.00,WeatherDisplay:10.37,2013-08-27 14:49:00,
2013-08-27 10:51:00,74.3,71.2,29.84,WNW,292,0.0,0.0,90,0.00,CLR,,0.00,WeatherDisplay:10.37,2013-08-27 14:51:00,
2013-08-27 10:52:00,74.5,71.4,29.84,SW,225,0.0,0.0,90,0.00,CLR,,0.00,WeatherDisplay:10.37,2013-08-27 14:52:00,
2013-08-27 10:54:00,74.3,71.2,29.84,NE,45,0.0,0.0,90,0.00,CLR,,0.00,WeatherDisplay:10.37,2013-08-27 14:54:00,
2013-08-27 10:55:00,74.3,71.2,29.84,NE,45,0.0,0.0,90,0.00,CLR,,0.00,WeatherDisplay:10.37,2013-08-27 14:55:00,
2013-08-27 10:56:00,74.5,71.0,29.84,NNE,22,2.3,0.0,89,0.00,CLR,,0.00,WeatherDisplay:10.37,2013-08-27 14:56:00,
2013-08-27 10:57:00,74.7,71.2,29.81,ENE,68,2.3,0.0,89,0.00,CLR,,0.00,WeatherDisplay:10.37,2013-08-27 14:57:00,
2013-08-27 10:59:00,74.8,71.7,29.81,ENE,68,0.0,0.0,90,0.00,CLR,,0.00,WeatherDisplay:10.37,2013-08-27 14:59:00,
2013-08-27 11:00:00,75.0,71.9,29.81,ENE,68,0.0,0.0,90,0.00,CLR,,0.00,WeatherDisplay:10.37,2013-08-27 15:00:00,
2013-08-27 11:01:00,75.0,71.9,29.81,NNW,338,0.0,0.0,90,0.00,CLR,,0.00,WeatherDisplay:10.37,2013-08-27 15:01:00,
2013-08-27 11:03:00,75.0,71.6,29.81,ENE,68,0.0,0.0,89,0.00,CLR,,0.00,WeatherDisplay:10.37,2013-08-27 15:03:00,
2013-08-27 11:04:00,75.2,71.4,29.81,ENE,68,0.0,0.0,88,0.00,CLR,,0.00,WeatherDisplay:10.37,2013-08-27 15:04:00,
2013-08-27 11:05:00,75.2,71.4,29.81,ENE,68,0.0,0.0,88,0.00,CLR,,0.00,WeatherDisplay:10.37,2013-08-27 15:05:00,
2013-08-27 11:06:00,75.2,71.4,29.81,ENE,68,0.0,0.0,88,0.00,CLR,,0.00,WeatherDisplay:10.37,2013-08-27 15:06:00,
2013-08-27 11:08:00,75.6,71.8,29.81,ENE,68,0.0,0.0,88,0.00,CLR,,0.00,WeatherDisplay:10.37,2013-08-27 15:08:00,
2013-08-27 11:09:00,75.9,71.8,29.81,ENE,68,0.0,0.0,87,0.00,CLR,,0.00,WeatherDisplay:10.37,2013-08-27 15:09:00,
2013-08-27 11:10:00,75.9,71.8,29.81,ESE,112,0.0,0.0,87,0.00,CLR,,0.00,WeatherDisplay:10.37,2013-08-27 15:10:00,
2013-08-27 11:11:00,75.9,71.8,29.81,ESE,112,0.0,0.0,87,0.00,CLR,,0.00,WeatherDisplay:10.37,2013-08-27 15:11:00,
2013-08-27 11:13:00,76.3,71.8,29.81,East,90,0.0,0.0,86,0.00,CLR,,0.00,WeatherDisplay:10.37,2013-08-27 15:13:00,
2013-08-27 11:15:00,76.1,71.6,29.81,NNE,22,0.0,0.0,86,0.00,CLR,,0.00,WeatherDisplay:10.37,2013-08-27 15:15:00,
2013-08-27 11:16:00,76.3,71.4,29.81,NE,45,0.0,0.0,85,0.00,CLR,,0.00,WeatherDisplay:10.37,2013-08-27 15:16:00,
2013-08-27 11:17:00,76.3,70.7,29.81,NE,45,0.0,0.0,83,0.00,CLR,,0.00,WeatherDisplay:10.37,2013-08-27 15:17:00,
2013-08-27 11:18:00,76.5,70.9,29.81,ENE,68,0.0,0.0,83,0.00,CLR,,0.00,WeatherDisplay:10.37,2013-08-27 15:18:00,
2013-08-27 11:20:00,76.5,70.9,29.81,NE,45,0.0,0.0,83,0.00,CLR,,0.00,WeatherDisplay:10.37,2013-08-27 15:20:00,
2013-08-27 11:21:00,76.5,70.9,29.81,NE,45,0.0,0.0,83,0.00,CLR,,0.00,WeatherDisplay:10.37,2013-08-27 15:21:00,
2013-08-27 11:22:00,76.6,70.4,29.81,ENE,68,0.0,0.0,81,0.00,CLR,,0.00,WeatherDisplay:10.37,2013-08-27 15:22:00,
2013-08-27 11:23:00,76.8,70.9,29.81,ESE,112,0.0,0.0,82,0.00,CLR,,0.00,WeatherDisplay:10.37,2013-08-27 15:23:00,
2013-08-27 11:25:00,76.6,70.4,29.81,ESE,112,0.0,0.0,81,0.00,CLR,,0.00,WeatherDisplay:10.37,2013-08-27 15:25:00,
2013-08-27 11:26:00,76.6,70.4,29.81,ESE,112,0.0,0.0,81,0.00,CLR,,0.00,WeatherDisplay:10.37,2013-08-27 15:26:00,
2013-08-27 11:27:00,77.0,70.7,29.81,ENE,68,1.2,0.0,81,0.00,CLR,,0.00,WeatherDisplay:10.37,2013-08-27 15:27:00,
2013-08-27 11:28:00,77.4,70.7,29.81,ESE,112,1.2,0.0,80,0.00,CLR,,0.00,WeatherDisplay:10.37,2013-08-27 15:28:00,
2013-08-27 11:30:00,77.7,70.7,29.81,ESE,112,0.0,0.0,79,0.00,CLR,,0.00,WeatherDisplay:10.37,2013-08-27 15:30:00,
2013-08-27 11:31:00,77.7,70.3,29.81,ESE,112,0.0,0.0,78,0.00,CLR,,0.00,WeatherDisplay:10.37,2013-08-27 15:31:00,
2013-08-27 11:32:00,77.7,70.3,29.81,ENE,68,0.0,0.0,78,0.00,CLR,,0.00,WeatherDisplay:10.37,2013-08-27 15:32:00,
2013-08-27 11:34:00,78.4,71.8,29.81,NE,45,0.0,0.0,80,0.00,CLR,,0.00,WeatherDisplay:10.37,2013-08-27 15:34:00,
2013-08-27 11:35:00,78.8,71.4,29.81,East,90,0.0,0.0,78,0.00,CLR,,0.00,WeatherDisplay:10.37,2013-08-27 15:35:00,
2013-08-27 11:37:00,78.8,71.4,29.81,ENE,68,0.0,0.0,78,0.00,CLR,,0.00,WeatherDisplay:10.37,2013-08-27 15:37:00,
2013-08-27 11:38:00,79.3,70.7,29.81,SE,135,0.0,0.0,75,0.00,CLR,,0.00,WeatherDisplay:10.37,2013-08-27 15:38:00,
2013-08-27 11:39:00,79.5,70.9,29.81,ESE,112,0.0,0.0,75,0.00,CLR,,0.00,WeatherDisplay:10.37,2013-08-27 15:39:00,
2013-08-27 11:40:00,79.3,69.9,29.81,East,90,0.0,0.0,73,0.00,CLR,,0.00,WeatherDisplay:10.37,2013-08-27 15:40:00,
2013-08-27 11:42:00,79.3,69.9,29.81,SE,135,0.0,0.0,73,0.00,CLR,,0.00,WeatherDisplay:10.37,2013-08-27 15:42:00,
2013-08-27 11:43:00,79.7,69.9,29.84,ENE,68,0.0,0.0,72,0.00,CLR,,0.00,WeatherDisplay:10.37,2013-08-27 15:43:00,
2013-08-27 11:44:00,80.2,70.0,29.84,ENE,68,0.0,0.0,71,0.00,CLR,,0.00,WeatherDisplay:10.37,2013-08-27 15:44:00,
2013-08-27 11:46:00,80.4,70.2,29.84,ENE,68,0.0,0.0,71,0.00,CLR,,0.00,WeatherDisplay:10.37,2013-08-27 15:46:00,
2013-08-27 11:47:00,80.4,69.7,29.84,NNE,22,0.0,0.0,70,0.00,CLR,,0.00,WeatherDisplay:10.37,2013-08-27 15:47:00,
2013-08-27 11:48:00,80.6,69.5,29.84,NNE,22,1.2,0.0,69,0.00,CLR,,0.00,WeatherDisplay:10.37,2013-08-27 15:48:00,
2013-08-27 11:49:00,80.8,69.2,29.84,ESE,112,0.0,0.0,68,0.00,CLR,,0.00,WeatherDisplay:10.37,2013-08-27 15:49:00,
2013-08-27 11:51:00,80.6,69.1,29.84,ESE,112,0.0,0.0,68,0.00,CLR,,0.00,WeatherDisplay:10.37,2013-08-27 15:51:00,
2013-08-27 11:52:00,81.0,69.4,29.84,NNE,22,0.0,0.0,68,0.00,CLR,,0.00,WeatherDisplay:10.37,2013-08-27 15:52:00,
2013-08-27 11:53:00,81.3,69.3,29.84,NNE,22,0.0,0.0,67,0.00,CLR,,0.00,WeatherDisplay:10.37,2013-08-27 15:53:00,
2013-08-27 11:55:00,81.5,68.1,29.84,East,90,0.0,0.0,64,0.00,CLR,,0.00,WeatherDisplay:10.37,2013-08-27 15:55:00,
2013-08-27 11:56:00,81.7,68.3,29.84,ESE,112,0.0,0.0,64,0.00,CLR,,0.00,WeatherDisplay:10.37,2013-08-27 15:56:00,
2013-08-27 11:57:00,81.7,68.3,29.84,ESE,112,0.0,0.0,64,0.00,CLR,,0.00,WeatherDisplay:10.37,2013-08-27 15:57:00,
2013-08-27 11:59:00,81.9,68.5,29.84,ENE,68,0.0,0.0,64,0.00,CLR,,0.00,WeatherDisplay:10.37,2013-08-27 15:59:00,
2013-08-27 12:00:00,81.9,68.5,29.84,ESE,112,0.0,0.0,64,0.00,CLR,,0.00,WeatherDisplay:10.37,2013-08-27 16:00:00,
2013-08-27 12:01:00,81.7,68.3,29.84,ESE,112,0.0,0.0,64,0.00,CLR,,0.00,WeatherDisplay:10.37,2013-08-27 16:01:00,
2013-08-27 12:02:00,81.7,67.4,29.84,ESE,112,1.2,0.0,62,0.00,CLR,,0.00,WeatherDisplay:10.37,2013-08-27 16:02:00,
2013-08-27 12:04:00,81.7,67.9,29.84,ENE,68,1.2,0.0,63,0.00,CLR,,0.00,WeatherDisplay:10.37,2013-08-27 16:04:00,
2013-08-27 12:06:00,81.3,67.1,29.84,East,90,2.6,0.0,62,0.00,CLR,,0.00,WeatherDisplay:10.37,2013-08-27 16:06:00,
2013-08-27 12:07:00,81.1,66.4,29.84,ENE,68,3.5,3.5,61,0.00,CLR,,0.00,WeatherDisplay:10.37,2013-08-27 16:07:00,
2013-08-27 12:09:00,81.5,67.2,29.84,NW,315,2.3,2.3,62,0.00,CLR,,0.00,WeatherDisplay:10.37,2013-08-27 16:09:00,
2013-08-27 12:11:00,81.3,66.6,29.84,ENE,68,3.5,3.5,61,0.00,CLR,,0.00,WeatherDisplay:10.37,2013-08-27 16:11:00,
2013-08-27 12:12:00,81.7,66.9,29.84,WNW,292,3.5,3.5,61,0.00,CLR,,0.00,WeatherDisplay:10.37,2013-08-27 16:12:00,
2013-08-27 12:13:00,81.7,67.4,29.84,SSE,158,0.0,0.0,62,0.00,CLR,,0.00,WeatherDisplay:10.37,2013-08-27 16:13:00,
2013-08-27 12:14:00,82.0,67.7,29.84,North,0,0.0,0.0,62,0.00,CLR,,0.00,WeatherDisplay:10.37,2013-08-27 16:14:00,
2013-08-27 12:16:00,82.4,67.1,29.84,East,90,0.0,0.0,60,0.00,CLR,,0.00,WeatherDisplay:10.37,2013-08-27 16:16:00,
2013-08-27 12:17:00,82.6,67.8,29.84,ENE,68,0.0,0.0,61,0.00,CLR,,0.00,WeatherDisplay:10.37,2013-08-27 16:17:00,
2013-08-27 12:18:00,82.8,67.9,29.84,ENE,68,0.0,0.0,61,0.00,CLR,,0.00,WeatherDisplay:10.37,2013-08-27 16:18:00,
2013-08-27 12:20:00,83.3,68.0,29.84,West,270,0.0,0.0,60,0.00,CLR,,0.00,WeatherDisplay:10.37,2013-08-27 16:20:00,
2013-08-27 12:21:00,83.5,67.6,29.84,NE,45,0.0,0.0,59,0.00,CLR,,0.00,WeatherDisplay:10.37,2013-08-27 16:21:00,
2013-08-27 12:22:00,84.4,68.0,29.84,South,180,0.0,0.0,58,0.00,CLR,,0.00,WeatherDisplay:10.37,2013-08-27 16:22:00,
2013-08-27 12:23:00,84.4,68.0,29.84,SSE,158,0.0,0.0,58,0.00,CLR,,0.00,WeatherDisplay:10.37,2013-08-27 16:23:00,
2013-08-27 12:25:00,85.3,68.8,29.84,ENE,68,0.0,0.0,58,0.00,CLR,,0.00,WeatherDisplay:10.37,2013-08-27 16:25:00,
2013-08-27 12:26:00,85.6,67.6,29.84,NE,45,0.0,0.0,55,0.00,CLR,,0.00,WeatherDisplay:10.37,2013-08-27 16:26:00,
2013-08-27 12:27:00,85.1,66.0,29.84,NE,45,0.0,0.9,53,0.00,CLR,,0.00,WeatherDisplay:10.37,2013-08-27 16:27:00,
2013-08-27 12:28:00,85.1,66.0,29.84,NNW,338,2.3,2.3,53,0.00,CLR,,0.00,WeatherDisplay:10.37,2013-08-27 16:28:00,
2013-08-27 12:30:00,85.1,65.5,29.84,NE,45,1.2,1.2,52,0.00,CLR,,0.00,WeatherDisplay:10.37,2013-08-27 16:30:00,
2013-08-27 12:31:00,84.9,65.3,29.84,ENE,68,0.0,0.0,52,0.00,CLR,,0.00,WeatherDisplay:10.37,2013-08-27 16:31:00,
2013-08-27 12:32:00,85.3,65.7,29.84,NE,45,0.0,0.0,52,0.00,CLR,,0.00,WeatherDisplay:10.37,2013-08-27 16:32:00,
2013-08-27 12:33:00,84.9,63.6,29.84,NE,45,0.9,0.0,49,0.00,CLR,,0.00,WeatherDisplay:10.37,2013-08-27 16:33:00,
2013-08-27 12:35:00,85.6,64.9,29.84,SSE,158,1.4,0.0,50,0.00,CLR,,0.00,WeatherDisplay:10.37,2013-08-27 16:35:00,
2013-08-27 12:36:00,86.0,65.2,29.84,NNE,22,1.2,1.2,50,0.00,CLR,,0.00,WeatherDisplay:10.37,2013-08-27 16:36:00,
2013-08-27 12:38:00,86.2,65.4,29.84,NNE,22,0.0,0.0,50,0.00,CLR,,0.00,WeatherDisplay:10.37,2013-08-27 16:38:00,
2013-08-27 12:40:00,87.1,64.4,29.84,NNE,22,0.0,0.0,47,0.00,CLR,,0.00,WeatherDisplay:10.37,2013-08-27 16:40:00,
2013-08-27 12:42:00,87.1,63.8,29.84,ESE,112,2.3,0.0,46,0.00,CLR,,0.00,WeatherDisplay:10.37,2013-08-27 16:42:00,
2013-08-27 12:43:00,87.4,65.3,29.81,SE,135,0.0,0.0,48,0.00,CLR,,0.00,WeatherDisplay:10.37,2013-08-27 16:43:00,
2013-08-27 12:45:00,87.4,64.7,29.81,North,0,1.2,0.0,47,0.00,CLR,,0.00,WeatherDisplay:10.37,2013-08-27 16:45:00,
2013-08-27 12:47:00,86.5,62.7,29.81,NNE,22,3.6,3.6,45,0.00,CLR,,0.00,WeatherDisplay:10.37,2013-08-27 16:47:00,
2013-08-27 12:48:00,86.2,62.3,29.81,ENE,68,3.5,3.5,45,0.00,CLR,,0.00,WeatherDisplay:10.37,2013-08-27 16:48:00,
2013-08-27 12:50:00,85.6,63.1,29.81,NW,315,2.3,0.0,47,0.00,CLR,,0.00,WeatherDisplay:10.37,2013-08-27 16:50:00,
2013-08-27 12:53:00,85.1,63.2,29.81,SE,135,2.3,0.0,48,0.00,CLR,,0.00,WeatherDisplay:10.37,2013-08-27 16:53:00,
2013-08-27 12:54:00,85.1,63.2,29.81,East,90,0.0,0.0,48,0.00,CLR,,0.00,WeatherDisplay:10.37,2013-08-27 16:54:00,
2013-08-27 12:55:00,84.9,64.2,29.81,ENE,68,0.0,0.0,50,0.00,CLR,,0.00,WeatherDisplay:10.37,2013-08-27 16:55:00,
2013-08-27 12:58:00,84.7,63.5,29.81,North,0,1.2,0.0,49,0.00,CLR,,0.00,WeatherDisplay:10.37,2013-08-27 16:58:00,
2013-08-27 12:59:00,84.7,64.0,29.81,ENE,68,0.0,0.0,50,0.00,CLR,,0.00,WeatherDisplay:10.37,2013-08-27 16:59:00,
2013-08-27 13:01:00,84.6,63.9,29.81,NW,315,0.0,0.0,50,0.00,CLR,,0.00,WeatherDisplay:10.37,2013-08-27 17:01:00,
2013-08-27 13:03:00,84.6,63.9,29.81,East,90,1.2,1.2,50,0.00,CLR,,0.00,WeatherDisplay:10.37,2013-08-27 17:03:00,
2013-08-27 13:04:00,84.4,63.7,29.81,NNW,338,2.3,2.3,50,0.00,CLR,,0.00,WeatherDisplay:10.37,2013-08-27 17:04:00,
2013-08-27 13:06:00,84.2,63.5,29.81,ENE,68,0.0,0.9,50,0.00,CLR,,0.00,WeatherDisplay:10.37,2013-08-27 17:06:00,
2013-08-27 13:08:00,83.8,63.8,29.81,NNE,22,0.0,0.0,51,0.00,CLR,,0.00,WeatherDisplay:10.37,2013-08-27 17:08:00,
2013-08-27 13:09:00,83.5,64.0,29.81,NE,45,0.0,0.0,52,0.00,CLR,,0.00,WeatherDisplay:10.37,2013-08-27 17:09:00,
2013-08-27 13:11:00,83.1,63.1,29.81,NE,45,1.2,0.0,51,0.00,CLR,,0.00,WeatherDisplay:10.37,2013-08-27 17:11:00,
2013-08-27 13:13:00,83.1,63.7,29.81,NW,315,0.0,0.0,52,0.00,CLR,,0.00,WeatherDisplay:10.37,2013-08-27 17:13:00,
2013-08-27 13:14:00,82.9,63.5,29.81,ENE,68,0.0,0.0,52,0.00,CLR,,0.00,WeatherDisplay:10.37,2013-08-27 17:14:00,
2013-08-27 13:15:00,82.8,63.9,29.81,NNE,22,0.0,0.0,53,0.00,CLR,,0.00,WeatherDisplay:10.37,2013-08-27 17:15:00,
2013-08-27 13:16:00,82.8,63.9,29.81,NE,45,0.0,0.0,53,0.00,CLR,,0.00,WeatherDisplay:10.37,2013-08-27 17:16:00,
2013-08-27 13:18:00,82.8,64.4,29.81,ENE,68,0.0,0.0,54,0.00,CLR,,0.00,WeatherDisplay:10.37,2013-08-27 17:18:00,
2013-08-27 13:19:00,82.8,64.9,29.81,ENE,68,0.0,0.0,55,0.00,CLR,,0.00,WeatherDisplay:10.37,2013-08-27 17:19:00,
2013-08-27 13:20:00,82.8,64.9,29.81,ENE,68,0.0,0.0,55,0.00,CLR,,0.00,WeatherDisplay:10.37,2013-08-27 17:20:00,
2013-08-27 13:22:00,82.8,64.9,29.81,ESE,112,0.0,0.0,55,0.00,CLR,,0.00,WeatherDisplay:10.37,2013-08-27 17:22:00,
2013-08-27 13:23:00,82.6,64.8,29.81,East,90,1.2,0.0,55,0.00,CLR,,0.00,WeatherDisplay:10.37,2013-08-27 17:23:00,
2013-08-27 13:24:00,82.6,65.3,29.81,NE,45,0.0,0.0,56,0.00,CLR,,0.00,WeatherDisplay:10.37,2013-08-27 17:24:00,
2013-08-27 13:25:00,82.8,64.9,29.81,ENE,68,0.0,0.0,55,0.00,CLR,,0.00,WeatherDisplay:10.37,2013-08-27 17:25:00,
2013-08-27 13:27:00,83.1,65.8,29.81,ESE,112,1.2,0.0,56,0.00,CLR,,0.00,WeatherDisplay:10.37,2013-08-27 17:27:00,
2013-08-27 13:28:00,83.1,65.8,29.81,WNW,292,0.0,0.0,56,0.00,CLR,,0.00,WeatherDisplay:10.37,2013-08-27 17:28:00,
2013-08-27 13:30:00,83.1,65.8,29.81,West,270,1.2,1.2,56,0.00,CLR,,0.00,WeatherDisplay:10.37,2013-08-27 17:30:00,
2013-08-27 13:32:00,83.3,66.0,29.81,East,90,0.0,0.0,56,0.00,CLR,,0.00,WeatherDisplay:10.37,2013-08-27 17:32:00,
2013-08-27 13:33:00,83.3,65.4,29.81,ENE,68,0.0,0.0,55,0.00,CLR,,0.00,WeatherDisplay:10.37,2013-08-27 17:33:00,
2013-08-27 13:35:00,83.3,66.0,29.81,East,90,0.0,0.0,56,0.00,CLR,,0.00,WeatherDisplay:10.37,2013-08-27 17:35:00,
2013-08-27 13:36:00,83.1,65.8,29.81,ENE,68,0.0,0.0,56,0.00,CLR,,0.00,WeatherDisplay:10.37,2013-08-27 17:36:00,
2013-08-27 13:38:00,82.9,65.6,29.81,ENE,68,0.0,0.0,56,0.00,CLR,,0.00,WeatherDisplay:10.37,2013-08-27 17:38:00,
2013-08-27 13:40:00,82.6,65.8,29.81,East,90,0.0,0.0,57,0.00,CLR,,0.00,WeatherDisplay:10.37,2013-08-27 17:40:00,
2013-08-27 13:41:00,82.8,66.0,29.81,East,90,0.0,0.0,57,0.00,CLR,,0.00,WeatherDisplay:10.37,2013-08-27 17:41:00,
2013-08-27 13:43:00,82.8,66.5,29.81,East,90,0.0,0.0,58,0.00,CLR,,0.00,WeatherDisplay:10.37,2013-08-27 17:43:00,
2013-08-27 13:45:00,82.8,66.5,29.81,East,90,0.0,0.0,58,0.00,CLR,,0.00,WeatherDisplay:10.37,2013-08-27 17:45:00,
2013-08-27 13:46:00,82.9,66.6,29.81,NNE,22,0.0,0.0,58,0.00,CLR,,0.00,WeatherDisplay:10.37,2013-08-27 17:46:00,
2013-08-27 13:48:00,83.3,67.0,29.81,NE,45,0.0,0.0,58,0.00,CLR,,0.00,WeatherDisplay:10.37,2013-08-27 17:48:00,
2013-08-27 13:49:00,83.5,67.1,29.81,NE,45,0.0,0.0,58,0.00,CLR,,0.00,WeatherDisplay:10.37,2013-08-27 17:49:00,
2013-08-27 13:50:00,83.7,67.8,29.81,East,90,0.0,0.0,59,0.00,CLR,,0.00,WeatherDisplay:10.37,2013-08-27 17:50:00,
2013-08-27 13:51:00,83.8,67.5,29.81,East,90,0.0,0.0,58,0.00,CLR,,0.00,WeatherDisplay:10.37,2013-08-27 17:51:00,
2013-08-27 13:52:00,84.0,67.7,29.81,ESE,112,0.0,0.0,58,0.00,CLR,,0.00,WeatherDisplay:10.37,2013-08-27 17:52:00,
2013-08-27 13:54:00,84.0,67.1,29.81,NNE,22,0.0,0.0,57,0.00,CLR,,0.00,WeatherDisplay:10.37,2013-08-27 17:54:00,
2013-08-27 13:56:00,84.0,65.0,29.81,NNE,22,1.2,1.2,53,0.00,CLR,,0.00,WeatherDisplay:10.37,2013-08-27 17:56:00,
2013-08-27 13:57:00,84.0,65.6,29.81,NW,315,1.4,0.0,54,0.00,CLR,,0.00,WeatherDisplay:10.37,2013-08-27 17:57:00,
2013-08-27 13:59:00,84.0,65.0,29.81,ENE,68,2.9,2.9,53,0.00,CLR,,0.00,WeatherDisplay:10.37,2013-08-27 17:59:00,
2013-08-27 14:01:00,84.0,64.5,29.81,WNW,292,0.0,0.0,52,0.00,CLR,,0.00,WeatherDisplay:10.37,2013-08-27 18:01:00,
2013-08-27 14:02:00,84.0,65.0,29.81,ENE,68,0.0,0.0,53,0.00,CLR,,0.00,WeatherDisplay:10.37,2013-08-27 18:02:00,
2013-08-27 14:04:00,83.7,64.7,29.81,NNE,22,0.0,0.0,53,0.00,CLR,,0.00,WeatherDisplay:10.37,2013-08-27 18:04:00,
2013-08-27 14:05:00,83.5,64.5,29.81,NW,315,1.2,0.0,53,0.00,CLR,,0.00,WeatherDisplay:10.37,2013-08-27 18:05:00,
2013-08-27 14:06:00,83.5,64.5,29.81,WSW,248,0.0,0.0,53,0.00,CLR,,0.00,WeatherDisplay:10.37,2013-08-27 18:06:00,
2013-08-27 14:07:00,83.3,64.9,29.81,North,0,0.0,0.0,54,0.00,CLR,,0.00,WeatherDisplay:10.37,2013-08-27 18:07:00,
2013-08-27 14:09:00,83.1,64.2,29.81,SW,225,0.0,0.0,53,0.00,CLR,,0.00,WeatherDisplay:10.37,2013-08-27 18:09:00,
2013-08-27 14:10:00,83.1,64.8,29.81,West,270,0.0,0.0,54,0.00,CLR,,0.00,WeatherDisplay:10.37,2013-08-27 18:10:00,
2013-08-27 14:11:00,82.9,64.0,29.81,East,90,0.9,0.0,53,0.00,CLR,,0.00,WeatherDisplay:10.37,2013-08-27 18:11:00,
2013-08-27 14:12:00,82.9,64.0,29.81,SSE,158,1.2,0.0,53,0.00,CLR,,0.00,WeatherDisplay:10.37,2013-08-27 18:12:00,
2013-08-27 14:15:00,82.8,63.9,29.81,WNW,292,0.0,0.0,53,0.00,CLR,,0.00,WeatherDisplay:10.37,2013-08-27 18:15:00,
2013-08-27 14:16:00,82.4,63.5,29.81,NW,315,1.2,0.0,53,0.00,CLR,,0.00,WeatherDisplay:10.37,2013-08-27 18:16:00,
2013-08-27 14:17:00,82.4,63.5,29.81,NW,315,1.2,0.0,53,0.00,CLR,,0.00,WeatherDisplay:10.37,2013-08-27 18:17:00,
2013-08-27 14:20:00,82.2,64.4,29.81,ENE,68,0.0,0.0,55,0.00,CLR,,0.00,WeatherDisplay:10.37,2013-08-27 18:20:00,
2013-08-27 14:21:00,82.4,64.6,29.81,ENE,68,0.0,0.0,55,0.00,CLR,,0.00,WeatherDisplay:10.37,2013-08-27 18:21:00,
2013-08-27 14:22:00,82.4,64.6,29.81,ENE,68,0.0,0.0,55,0.00,CLR,,0.00,WeatherDisplay:10.37,2013-08-27 18:22:00,
2013-08-27 14:23:00,82.8,65.5,29.81,ENE,68,0.0,0.0,56,0.00,CLR,,0.00,WeatherDisplay:10.37,2013-08-27 18:23:00,
2013-08-27 14:25:00,83.1,65.3,29.81,NNE,22,0.0,0.9,55,0.00,CLR,,0.00,WeatherDisplay:10.37,2013-08-27 18:25:00,
2013-08-27 14:26:00,83.5,65.1,29.81,East,90,0.0,0.0,54,0.00,CLR,,0.00,WeatherDisplay:10.37,2013-08-27 18:26:00,
2013-08-27 14:27:00,83.5,65.1,29.81,East,90,0.0,0.0,54,0.00,CLR,,0.00,WeatherDisplay:10.37,2013-08-27 18:27:00,
2013-08-27 14:28:00,83.7,65.8,29.84,ESE,112,0.0,0.0,55,0.00,CLR,,0.00,WeatherDisplay:10.37,2013-08-27 18:28:00,
2013-08-27 14:30:00,82.9,64.6,29.84,ENE,68,1.2,0.0,54,0.00,CLR,,0.00,WeatherDisplay:10.37,2013-08-27 18:30:00,
2013-08-27 14:32:00,82.9,65.6,29.84,East,90,1.2,0.0,56,0.00,CLR,,0.00,WeatherDisplay:10.37,2013-08-27 18:32:00,
2013-08-27 14:33:00,82.8,66.0,29.84,ESE,112,0.0,0.0,57,0.00,CLR,,0.00,WeatherDisplay:10.37,2013-08-27 18:33:00,
2013-08-27 14:35:00,82.4,66.1,29.84,ESE,112,0.0,0.0,58,0.00,CLR,,0.00,WeatherDisplay:10.37,2013-08-27 18:35:00,
2013-08-27 14:37:00,82.4,66.6,29.84,ESE,112,0.0,0.0,59,0.00,CLR,,0.00,WeatherDisplay:10.37,2013-08-27 18:37:00,
2013-08-27 14:38:00,82.4,66.1,29.84,ESE,112,0.0,0.0,58,0.00,CLR,,0.00,WeatherDisplay:10.37,2013-08-27 18:38:00,
2013-08-27 14:41:00,82.8,67.5,29.84,ESE,112,0.0,0.0,60,0.00,CLR,,0.00,WeatherDisplay:10.37,2013-08-27 18:41:00,
2013-08-27 14:42:00,82.8,67.0,29.84,East,90,0.9,0.0,59,0.00,CLR,,0.00,WeatherDisplay:10.37,2013-08-27 18:42:00,
2013-08-27 14:43:00,82.8,67.0,29.84,East,90,1.2,0.0,59,0.00,CLR,,0.00,WeatherDisplay:10.37,2013-08-27 18:43:00,
2013-08-27 14:46:00,82.4,66.6,29.84,NE,45,0.0,0.0,59,0.00,CLR,,0.00,WeatherDisplay:10.37,2013-08-27 18:46:00,
2013-08-27 14:47:00,82.6,66.8,29.84,NE,45,0.0,0.0,59,0.00,CLR,,0.00,WeatherDisplay:10.37,2013-08-27 18:47:00,
2013-08-27 14:48:00,82.9,67.1,29.84,NE,45,0.0,0.0,59,0.00,CLR,,0.00,WeatherDisplay:10.37,2013-08-27 18:48:00,
2013-08-27 14:49:00,82.9,67.1,29.84,ENE,68,0.0,0.0,59,0.00,CLR,,0.00,WeatherDisplay:10.37,2013-08-27 18:49:00,
2013-08-27 14:51:00,83.7,67.8,29.84,ENE,68,0.0,0.0,59,0.00,CLR,,0.00,WeatherDisplay:10.37,2013-08-27 18:51:00,
2013-08-27 14:52:00,83.7,67.8,29.84,ENE,68,0.0,0.0,59,0.00,CLR,,0.00,WeatherDisplay:10.37,2013-08-27 18:52:00,
2013-08-27 14:53:00,83.7,67.8,29.84,ENE,68,0.0,0.0,59,0.00,CLR,,0.00,WeatherDisplay:10.37,2013-08-27 18:53:00,
2013-08-27 14:54:00,83.8,68.0,29.84,ENE,68,0.0,0.0,59,0.00,CLR,,0.00,WeatherDisplay:10.37,2013-08-27 18:54:00,
2013-08-27 14:56:00,83.8,67.0,29.84,NNE,22,0.0,0.0,57,0.00,CLR,,0.00,WeatherDisplay:10.37,2013-08-27 18:56:00,
2013-08-27 14:57:00,83.3,66.0,29.84,ESE,112,0.0,0.0,56,0.00,CLR,,0.00,WeatherDisplay:10.37,2013-08-27 18:57:00,
2013-08-27 14:58:00,83.3,66.0,29.84,NNE,22,1.2,0.0,56,0.00,CLR,,0.00,WeatherDisplay:10.37,2013-08-27 18:58:00,
2013-08-27 14:59:00,83.3,66.0,29.84,ENE,68,0.0,0.0,56,0.00,CLR,,0.00,WeatherDisplay:10.37,2013-08-27 18:59:00,
2013-08-27 15:02:00,82.6,65.8,29.84,ESE,112,0.0,0.0,57,0.00,CLR,,0.00,WeatherDisplay:10.37,2013-08-27 19:02:00,
2013-08-27 15:03:00,82.2,66.5,29.84,East,90,0.0,0.0,59,0.00,CLR,,0.00,WeatherDisplay:10.37,2013-08-27 19:03:00,
2013-08-27 15:04:00,82.0,66.3,29.84,ESE,112,0.0,0.0,59,0.00,CLR,,0.00,WeatherDisplay:10.37,2013-08-27 19:04:00,
2013-08-27 15:07:00,82.0,66.8,29.84,East,90,0.0,0.0,60,0.00,CLR,,0.00,WeatherDisplay:10.37,2013-08-27 19:07:00,
2013-08-27 15:08:00,82.0,66.8,29.84,East,90,0.0,0.0,60,0.00,CLR,,0.00,WeatherDisplay:10.37,2013-08-27 19:08:00,
2013-08-27 15:09:00,82.0,66.8,29.84,East,90,0.0,0.0,60,0.00,CLR,,0.00,WeatherDisplay:10.37,2013-08-27 19:09:00,
2013-08-27 15:12:00,83.1,67.8,29.84,East,90,0.0,0.0,60,0.00,CLR,,0.00,WeatherDisplay:10.37,2013-08-27 19:12:00,
2013-08-27 15:13:00,83.1,67.8,29.81,East,90,0.0,0.0,60,0.00,CLR,,0.00,WeatherDisplay:10.37,2013-08-27 19:13:00,
2013-08-27 15:14:00,83.7,68.3,29.81,ESE,112,0.0,0.0,60,0.00,CLR,,0.00,WeatherDisplay:10.37,2013-08-27 19:14:00,
2013-08-27 15:17:00,84.2,66.3,29.81,ESE,112,3.5,3.5,55,0.00,CLR,,0.00,WeatherDisplay:10.37,2013-08-27 19:17:00,
2013-08-27 15:18:00,84.9,68.0,29.81,East,90,2.9,0.0,57,0.00,CLR,,0.00,WeatherDisplay:10.37,2013-08-27 19:18:00,
2013-08-27 15:19:00,86.2,69.2,29.81,South,180,2.3,0.0,57,0.00,CLR,,0.00,WeatherDisplay:10.37,2013-08-27 19:19:00,
2013-08-27 15:20:00,86.5,69.0,29.81,SE,135,0.0,0.0,56,0.00,CLR,,0.00,WeatherDisplay:10.37,2013-08-27 19:20:00,
2013-08-27 15:22:00,86.7,68.1,29.81,SE,135,0.0,0.0,54,0.00,CLR,,0.00,WeatherDisplay:10.37,2013-08-27 19:22:00,
2013-08-27 15:23:00,85.8,66.2,29.81,ESE,112,0.0,0.0,52,0.00,CLR,,0.00,WeatherDisplay:10.37,2013-08-27 19:23:00,
2013-08-27 15:24:00,85.3,65.7,29.81,ESE,112,0.0,0.0,52,0.00,CLR,,0.00,WeatherDisplay:10.37,2013-08-27 19:24:00,
2013-08-27 15:25:00,85.3,65.7,29.81,ESE,112,0.0,0.0,52,0.00,CLR,,0.00,WeatherDisplay:10.37,2013-08-27 19:25:00,
2013-08-27 15:27:00,86.0,66.3,29.81,East,90,0.0,0.0,52,0.00,CLR,,0.00,WeatherDisplay:10.37,2013-08-27 19:27:00,
2013-08-27 15:28:00,86.7,67.0,29.81,East,90,0.0,0.0,52,0.00,CLR,,0.00,WeatherDisplay:10.37,2013-08-27 19:28:00,
2013-08-27 15:29:00,86.7,65.9,29.81,ESE,112,0.0,0.0,50,0.00,CLR,,0.00,WeatherDisplay:10.37,2013-08-27 19:29:00,
2013-08-27 15:30:00,86.7,64.7,29.81,ESE,112,0.0,0.0,48,0.00,CLR,,0.00,WeatherDisplay:10.37,2013-08-27 19:30:00,
2013-08-27 15:32:00,85.5,64.1,29.81,ESE,112,2.3,2.3,49,0.00,CLR,,0.00,WeatherDisplay:10.37,2013-08-27 19:32:00,
2013-08-27 15:33:00,85.3,64.5,29.81,ESE,112,2.3,2.3,50,0.00,CLR,,0.00,WeatherDisplay:10.37,2013-08-27 19:33:00,
2013-08-27 15:34:00,85.1,64.4,29.81,ESE,112,1.4,0.0,50,0.00,CLR,,0.00,WeatherDisplay:10.37,2013-08-27 19:34:00,
2013-08-27 15:35:00,84.7,64.6,29.81,ESE,112,2.3,0.0,51,0.00,CLR,,0.00,WeatherDisplay:10.37,2013-08-27 19:35:00,
2013-08-27 15:37:00,84.7,64.6,29.81,ESE,112,2.3,0.0,51,0.00,CLR,,0.00,WeatherDisplay:10.37,2013-08-27 19:37:00,
2013-08-27 15:38:00,84.6,65.0,29.81,ESE,112,0.0,0.0,52,0.00,CLR,,0.00,WeatherDisplay:10.37,2013-08-27 19:38:00,
2013-08-27 15:39:00,84.6,65.0,29.81,ESE,112,0.0,0.0,52,0.00,CLR,,0.00,WeatherDisplay:10.37,2013-08-27 19:39:00,
2013-08-27 15:40:00,84.4,64.8,29.81,ESE,112,0.0,0.0,52,0.00,CLR,,0.00,WeatherDisplay:10.37,2013-08-27 19:40:00,
2013-08-27 15:42:00,84.2,64.7,29.81,ESE,112,0.0,0.9,52,0.00,CLR,,0.00,WeatherDisplay:10.37,2013-08-27 19:42:00,
2013-08-27 15:44:00,84.0,65.0,29.81,ESE,112,1.2,0.0,53,0.00,CLR,,0.00,WeatherDisplay:10.37,2013-08-27 19:44:00,
2013-08-27 15:45:00,84.0,64.5,29.81,ESE,112,3.5,0.0,52,0.00,CLR,,0.00,WeatherDisplay:10.37,2013-08-27 19:45:00,
2013-08-27 15:48:00,85.1,66.0,29.81,ESE,112,0.0,0.0,53,0.00,CLR,,0.00,WeatherDisplay:10.37,2013-08-27 19:48:00,
2013-08-27 15:49:00,86.0,66.3,29.81,ESE,112,0.0,0.0,52,0.00,CLR,,0.00,WeatherDisplay:10.37,2013-08-27 19:49:00,
2013-08-27 15:50:00,86.0,65.2,29.81,ESE,112,1.2,0.0,50,0.00,CLR,,0.00,WeatherDisplay:10.37,2013-08-27 19:50:00,
2013-08-27 15:53:00,86.0,65.2,29.81,ESE,112,0.0,0.0,50,0.00,CLR,,0.00,WeatherDisplay:10.37,2013-08-27 19:53:00,
2013-08-27 15:54:00,85.6,65.4,29.81,SE,135,0.0,0.0,51,0.00,CLR,,0.00,WeatherDisplay:10.37,2013-08-27 19:54:00,
2013-08-27 15:55:00,85.5,64.7,29.81,ESE,112,2.3,2.3,50,0.00,CLR,,0.00,WeatherDisplay:10.37,2013-08-27 19:55:00,
2013-08-27 15:56:00,85.3,64.5,29.81,ESE,112,2.3,2.3,50,0.00,CLR,,0.00,WeatherDisplay:10.37,2013-08-27 19:56:00,
2013-08-27 15:58:00,85.3,65.1,29.81,ESE,112,0.0,0.0,51,0.00,CLR,,0.00,WeatherDisplay:10.37,2013-08-27 19:58:00,
2013-08-27 15:59:00,85.3,65.1,29.81,ESE,112,0.0,0.0,51,0.00,CLR,,0.00,WeatherDisplay:10.37,2013-08-27 19:59:00,
2013-08-27 16:00:00,84.7,64.0,29.81,East,90,0.0,0.0,50,0.00,CLR,,0.00,WeatherDisplay:10.37,2013-08-27 20:00:00,
2013-08-27 16:01:00,84.7,64.0,29.81,East,90,1.2,0.0,50,0.00,CLR,,0.00,WeatherDisplay:10.37,2013-08-27 20:01:00,
2013-08-27 16:03:00,84.6,63.9,29.81,ESE,112,0.0,0.0,50,0.00,CLR,,0.00,WeatherDisplay:10.37,2013-08-27 20:03:00,
2013-08-27 16:04:00,84.0,64.5,29.81,East,90,0.0,0.0,52,0.00,CLR,,0.00,WeatherDisplay:10.37,2013-08-27 20:04:00,
2013-08-27 16:05:00,84.0,64.5,29.81,East,90,0.0,0.0,52,0.00,CLR,,0.00,WeatherDisplay:10.37,2013-08-27 20:05:00,
2013-08-27 16:06:00,83.8,64.3,29.81,ENE,68,0.0,0.0,52,0.00,CLR,,0.00,WeatherDisplay:10.37,2013-08-27 20:06:00,
2013-08-27 16:08:00,83.5,64.5,29.81,ESE,112,0.0,0.0,53,0.00,CLR,,0.00,WeatherDisplay:10.37,2013-08-27 20:08:00,
2013-08-27 16:09:00,83.3,64.4,29.81,ESE,112,2.0,0.0,53,0.00,CLR,,0.00,WeatherDisplay:10.37,2013-08-27 20:09:00,
2013-08-27 16:11:00,83.1,64.8,29.81,East,90,0.0,0.0,54,0.00,CLR,,0.00,WeatherDisplay:10.37,2013-08-27 20:11:00,
2013-08-27 16:13:00,82.4,64.6,29.81,East,90,0.0,0.0,55,0.00,CLR,,0.00,WeatherDisplay:10.37,2013-08-27 20:13:00,
2013-08-27 16:14:00,81.9,64.6,29.81,ESE,112,0.0,0.0,56,0.00,CLR,,0.00,WeatherDisplay:10.37,2013-08-27 20:14:00,
2013-08-27 16:15:00,81.9,64.6,29.81,ESE,112,1.2,0.0,56,0.00,CLR,,0.00,WeatherDisplay:10.37,2013-08-27 20:15:00,
2013-08-27 16:16:00,81.7,65.0,29.81,ESE,112,0.0,0.0,57,0.00,CLR,,0.00,WeatherDisplay:10.37,2013-08-27 20:16:00,
2013-08-27 16:18:00,81.5,65.3,29.81,ESE,112,0.0,0.0,58,0.00,CLR,,0.00,WeatherDisplay:10.37,2013-08-27 20:18:00,
2013-08-27 16:20:00,81.3,65.6,29.81,ESE,112,0.0,0.0,59,0.00,CLR,,0.00,WeatherDisplay:10.37,2013-08-27 20:20:00,
2013-08-27 16:21:00,81.1,65.5,29.81,ESE,112,0.0,0.0,59,0.00,CLR,,0.00,WeatherDisplay:10.37,2013-08-27 20:21:00,
2013-08-27 16:22:00,81.1,65.9,29.81,ESE,112,0.0,0.0,60,0.00,CLR,,0.00,WeatherDisplay:10.37,2013-08-27 20:22:00,
2013-08-27 16:23:00,81.0,65.8,29.81,ESE,112,2.0,0.0,60,0.00,CLR,,0.00,WeatherDisplay:10.37,2013-08-27 20:23:00,
2013-08-27 16:25:00,81.0,65.8,29.81,ESE,112,0.0,0.0,60,0.00,CLR,,0.00,WeatherDisplay:10.37,2013-08-27 20:25:00,
2013-08-27 16:26:00,81.0,65.8,29.81,ESE,112,0.0,0.0,60,0.00,CLR,,0.00,WeatherDisplay:10.37,2013-08-27 20:26:00,
2013-08-27 16:27:00,81.0,66.2,29.81,ESE,112,0.0,0.0,61,0.00,CLR,,0.00,WeatherDisplay:10.37,2013-08-27 20:27:00,
2013-08-27 16:29:00,81.1,66.4,29.78,ESE,112,0.0,0.0,61,0.00,CLR,,0.00,WeatherDisplay:10.37,2013-08-27 20:29:00,
2013-08-27 16:30:00,81.1,65.9,29.78,ESE,112,1.2,0.0,60,0.00,CLR,,0.00,WeatherDisplay:10.37,2013-08-27 20:30:00,
2013-08-27 16:31:00,81.1,65.9,29.78,ENE,68,1.2,0.0,60,0.00,CLR,,0.00,WeatherDisplay:10.37,2013-08-27 20:31:00,
2013-08-27 16:32:00,81.3,66.1,29.78,East,90,0.0,0.0,60,0.00,CLR,,0.00,WeatherDisplay:10.37,2013-08-27 20:32:00,
2013-08-27 16:34:00,81.3,66.1,29.78,East,90,0.0,0.0,60,0.00,CLR,,0.00,WeatherDisplay:10.37,2013-08-27 20:34:00,
2013-08-27 16:35:00,81.5,66.3,29.78,East,90,2.3,2.3,60,0.00,CLR,,0.00,WeatherDisplay:10.37,2013-08-27 20:35:00,
2013-08-27 16:36:00,81.5,66.3,29.78,East,90,2.3,0.0,60,0.00,CLR,,0.00,WeatherDisplay:10.37,2013-08-27 20:36:00,
2013-08-27 16:38:00,82.0,66.8,29.78,ESE,112,0.0,0.0,60,0.00,CLR,,0.00,WeatherDisplay:10.37,2013-08-27 20:38:00,
2013-08-27 16:39:00,82.0,66.8,29.78,East,90,0.0,0.0,60,0.00,CLR,,0.00,WeatherDisplay:10.37,2013-08-27 20:39:00,
2013-08-27 16:40:00,81.7,66.4,29.78,ESE,112,2.4,0.0,60,0.00,CLR,,0.00,WeatherDisplay:10.37,2013-08-27 20:40:00,
2013-08-27 16:41:00,81.7,66.4,29.78,ESE,112,2.3,0.0,60,0.00,CLR,,0.00,WeatherDisplay:10.37,2013-08-27 20:41:00,
2013-08-27 16:43:00,81.0,65.8,29.81,East,90,0.0,0.0,60,0.00,CLR,,0.00,WeatherDisplay:10.37,2013-08-27 20:43:00,
2013-08-27 16:44:00,81.0,65.8,29.81,East,90,0.0,0.0,60,0.00,CLR,,0.00,WeatherDisplay:10.37,2013-08-27 20:44:00,
2013-08-27 16:45:00,81.5,66.3,29.81,East,90,2.3,2.3,60,0.00,CLR,,0.00,WeatherDisplay:10.37,2013-08-27 20:45:00,
2013-08-27 16:46:00,81.9,67.1,29.81,East,90,1.2,0.0,61,0.00,CLR,,0.00,WeatherDisplay:10.37,2013-08-27 20:46:00,
2013-08-27 16:47:00,81.9,67.1,29.81,East,90,0.0,0.0,61,0.00,CLR,,0.00,WeatherDisplay:10.37,2013-08-27 20:47:00,
2013-08-27 16:49:00,81.5,65.8,29.81,ESE,112,0.0,0.0,59,0.00,CLR,,0.00,WeatherDisplay:10.37,2013-08-27 20:49:00,
2013-08-27 16:50:00,81.3,66.1,29.81,East,90,0.0,0.0,60,0.00,CLR,,0.00,WeatherDisplay:10.37,2013-08-27 20:50:00,
2013-08-27 16:51:00,80.8,65.6,29.81,ESE,112,0.9,1.4,60,0.00,CLR,,0.00,WeatherDisplay:10.37,2013-08-27 20:51:00,
2013-08-27 16:52:00,80.8,65.6,29.81,East,90,2.3,2.3,60,0.00,CLR,,0.00,WeatherDisplay:10.37,2013-08-27 20:52:00,
2013-08-27 16:54:00,80.6,65.4,29.81,East,90,0.0,0.0,60,0.00,CLR,,0.00,WeatherDisplay:10.37,2013-08-27 20:54:00,
2013-08-27 16:56:00,80.4,66.2,29.81,East,90,0.0,0.0,62,0.00,CLR,,0.00,WeatherDisplay:10.37,2013-08-27 20:56:00,
2013-08-27 16:57:00,80.6,65.9,29.81,ESE,112,1.2,0.0,61,0.00,CLR,,0.00,WeatherDisplay:10.37,2013-08-27 20:57:00,
2013-08-27 16:59:00,80.4,66.2,29.81,ESE,112,0.0,0.0,62,0.00,CLR,,0.00,WeatherDisplay:10.37,2013-08-27 20:59:00,
2013-08-27 17:01:00,80.6,65.9,29.81,East,90,0.0,0.0,61,0.00,CLR,,0.00,WeatherDisplay:10.37,2013-08-27 21:01:00,
2013-08-27 17:02:00,80.8,66.1,29.81,NNE,22,0.0,0.0,61,0.00,CLR,,0.00,WeatherDisplay:10.37,2013-08-27 21:02:00,
2013-08-27 17:04:00,80.8,66.1,29.81,East,90,0.0,0.0,61,0.00,CLR,,0.00,WeatherDisplay:10.37,2013-08-27 21:04:00,
2013-08-27 17:06:00,80.6,65.9,29.81,East,90,0.0,0.0,61,0.00,CLR,,0.00,WeatherDisplay:10.37,2013-08-27 21:06:00,
2013-08-27 17:07:00,80.6,66.4,29.81,ESE,112,0.0,0.0,62,0.00,CLR,,0.00,WeatherDisplay:10.37,2013-08-27 21:07:00,
2013-08-27 17:09:00,80.6,65.9,29.81,SE,135,0.0,0.9,61,0.00,CLR,,0.00,WeatherDisplay:10.37,2013-08-27 21:09:00,
2013-08-27 17:10:00,80.4,66.2,29.81,ESE,112,2.3,0.0,62,0.00,CLR,,0.00,WeatherDisplay:10.37,2013-08-27 21:10:00,
2013-08-27 17:25:00,80.6,65.9,29.78,East,90,0.0,0.0,61,0.00,CLR,,0.00,WeatherDisplay:10.37,2013-08-27 21:25:00,
2013-08-27 17:26:00,80.6,65.9,29.78,East,90,0.0,0.0,61,0.00,CLR,,0.00,WeatherDisplay:10.37,2013-08-27 21:26:00,
2013-08-27 17:30:00,80.2,66.0,29.78,ESE,112,0.0,0.0,62,0.00,CLR,,0.00,WeatherDisplay:10.37,2013-08-27 21:30:00,
2013-08-27 17:31:00,80.2,66.0,29.78,SE,135,0.0,0.0,62,0.00,CLR,,0.00,WeatherDisplay:10.37,2013-08-27 21:31:00,
2013-08-27 17:32:00,80.2,66.0,29.78,SE,135,0.0,0.0,62,0.00,CLR,,0.00,WeatherDisplay:10.37,2013-08-27 21:32:00,
2013-08-27 17:36:00,79.5,65.4,29.78,East,90,1.2,0.0,62,0.00,CLR,,0.00,WeatherDisplay:10.37,2013-08-27 21:36:00,
2013-08-27 17:38:00,79.5,65.4,29.78,ESE,112,1.2,0.0,62,0.00,CLR,,0.00,WeatherDisplay:10.37,2013-08-27 21:38:00,
2013-08-27 17:39:00,79.7,66.0,29.78,ESE,112,0.0,0.0,63,0.00,CLR,,0.00,WeatherDisplay:10.37,2013-08-27 21:39:00,
2013-08-27 17:40:00,79.9,66.2,29.78,ENE,68,0.0,0.0,63,0.00,CLR,,0.00,WeatherDisplay:10.37,2013-08-27 21:40:00,
2013-08-27 17:43:00,80.1,65.9,29.78,ESE,112,1.2,0.0,62,0.00,CLR,,0.00,WeatherDisplay:10.37,2013-08-27 21:43:00,
2013-08-27 17:46:00,80.4,66.7,29.78,East,90,0.0,0.0,63,0.00,CLR,,0.00,WeatherDisplay:10.37,2013-08-27 21:46:00,
2013-08-27 17:47:00,80.4,66.7,29.78,East,90,0.0,0.0,63,0.00,CLR,,0.00,WeatherDisplay:10.37,2013-08-27 21:47:00,
2013-08-27 17:48:00,80.8,67.0,29.78,East,90,0.0,0.0,63,0.00,CLR,,0.00,WeatherDisplay:10.37,2013-08-27 21:48:00,
2013-08-27 17:52:00,81.1,66.9,29.78,ESE,112,0.0,0.0,62,0.00,CLR,,0.00,WeatherDisplay:10.37,2013-08-27 21:52:00,
2013-08-27 17:53:00,81.7,67.4,29.78,ESE,112,0.0,0.0,62,0.00,CLR,,0.00,WeatherDisplay:10.37,2013-08-27 21:53:00,
2013-08-27 17:57:00,81.9,66.1,29.78,East,90,0.0,0.0,59,0.00,CLR,,0.00,WeatherDisplay:10.37,2013-08-27 21:57:00,
2013-08-27 17:58:00,81.9,66.1,29.78,East,90,0.0,0.0,59,0.00,CLR,,0.00,WeatherDisplay:10.37,2013-08-27 21:58:00,
2013-08-27 18:02:00,81.7,65.0,29.78,ESE,112,0.0,0.0,57,0.00,CLR,,0.00,WeatherDisplay:10.37,2013-08-27 22:02:00,
2013-08-27 18:03:00,81.7,65.0,29.78,East,90,2.9,2.9,57,0.00,CLR,,0.00,WeatherDisplay:10.37,2013-08-27 22:03:00,
2013-08-27 18:07:00,81.7,65.5,29.78,SE,135,0.0,0.0,58,0.00,CLR,,0.00,WeatherDisplay:10.37,2013-08-27 22:07:00,
2013-08-27 18:08:00,81.7,65.5,29.78,SE,135,0.0,0.0,58,0.00,CLR,,0.00,WeatherDisplay:10.37,2013-08-27 22:08:00,
2013-08-27 18:09:00,81.9,65.6,29.78,ESE,112,0.0,0.0,58,0.00,CLR,,0.00,WeatherDisplay:10.37,2013-08-27 22:09:00,
2013-08-27 18:12:00,82.0,65.3,29.75,ESE,112,0.0,0.0,57,0.00,CLR,,0.00,WeatherDisplay:10.37,2013-08-27 22:12:00,
2013-08-27 18:13:00,82.0,65.3,29.75,ESE,112,0.0,0.0,57,0.00,CLR,,0.00,WeatherDisplay:10.37,2013-08-27 22:13:00,
2013-08-27 18:14:00,82.0,64.8,29.75,ESE,112,0.0,0.0,56,0.00,CLR,,0.00,WeatherDisplay:10.37,2013-08-27 22:14:00,
2013-08-27 18:18:00,82.2,65.0,29.75,ESE,112,0.0,0.0,56,0.00,CLR,,0.00,WeatherDisplay:10.37,2013-08-27 22:18:00,
2013-08-27 18:19:00,82.4,65.1,29.75,ESE,112,0.0,0.0,56,0.00,CLR,,0.00,WeatherDisplay:10.37,2013-08-27 22:19:00,
2013-08-27 18:20:00,82.2,64.4,29.75,ESE,112,0.0,0.0,55,0.00,CLR,,0.00,WeatherDisplay:10.37,2013-08-27 22:20:00,
2013-08-27 18:23:00,82.0,64.8,29.75,ESE,112,0.0,0.0,56,0.00,CLR,,0.00,WeatherDisplay:10.37,2013-08-27 22:23:00,
2013-08-27 18:24:00,82.0,64.3,29.75,ESE,112,0.0,0.0,55,0.00,CLR,,0.00,WeatherDisplay:10.37,2013-08-27 22:24:00,
2013-08-27 18:25:00,81.9,64.1,29.75,ESE,112,0.0,0.0,55,0.00,CLR,,0.00,WeatherDisplay:10.37,2013-08-27 22:25:00,
2013-08-27 18:28:00,81.9,64.6,29.75,East,90,0.0,0.0,56,0.00,CLR,,0.00,WeatherDisplay:10.37,2013-08-27 22:28:00,
2013-08-27 18:29:00,81.9,64.6,29.75,East,90,0.0,0.0,56,0.00,CLR,,0.00,WeatherDisplay:10.37,2013-08-27 22:29:00,
2013-08-27 18:30:00,81.7,64.5,29.75,ESE,112,0.0,0.0,56,0.00,CLR,,0.00,WeatherDisplay:10.37,2013-08-27 22:30:00,
2013-08-27 18:33:00,81.1,64.5,29.75,ESE,112,0.0,0.0,57,0.00,CLR,,0.00,WeatherDisplay:10.37,2013-08-27 22:33:00,
2013-08-27 18:34:00,81.1,65.0,29.75,ESE,112,0.0,0.0,58,0.00,CLR,,0.00,WeatherDisplay:10.37,2013-08-27 22:34:00,
2013-08-27 18:35:00,81.1,65.0,29.75,North,0,0.0,0.0,58,0.00,CLR,,0.00,WeatherDisplay:10.37,2013-08-27 22:35:00,
2013-08-27 18:39:00,81.3,64.1,29.75,NE,45,0.0,0.0,56,0.00,CLR,,0.00,WeatherDisplay:10.37,2013-08-27 22:39:00,
2013-08-27 18:40:00,81.1,64.0,29.75,ESE,112,0.0,0.0,56,0.00,CLR,,0.00,WeatherDisplay:10.37,2013-08-27 22:40:00,
2013-08-27 18:41:00,81.1,64.0,29.75,ESE,112,0.0,0.0,56,0.00,CLR,,0.00,WeatherDisplay:10.37,2013-08-27 22:41:00,
2013-08-27 18:44:00,80.6,64.0,29.75,ENE,68,0.0,0.0,57,0.00,CLR,,0.00,WeatherDisplay:10.37,2013-08-27 22:44:00,
2013-08-27 18:45:00,80.6,64.0,29.75,ENE,68,0.0,0.0,57,0.00,CLR,,0.00,WeatherDisplay:10.37,2013-08-27 22:45:00,
2013-08-27 18:46:00,80.8,64.1,29.75,ENE,68,0.0,0.0,57,0.00,CLR,,0.00,WeatherDisplay:10.37,2013-08-27 22:46:00,
2013-08-27 18:50:00,79.9,63.8,29.75,ESE,112,0.0,0.0,58,0.00,CLR,,0.00,WeatherDisplay:10.37,2013-08-27 22:50:00,
2013-08-27 18:51:00,79.5,63.9,29.75,North,0,0.0,0.0,59,0.00,CLR,,0.00,WeatherDisplay:10.37,2013-08-27 22:51:00,
2013-08-27 18:55:00,79.3,64.2,29.75,ENE,68,0.0,0.0,60,0.00,CLR,,0.00,WeatherDisplay:10.37,2013-08-27 22:55:00,
2013-08-27 18:57:00,79.2,64.6,29.75,ENE,68,0.0,0.0,61,0.00,CLR,,0.00,WeatherDisplay:10.37,2013-08-27 22:57:00,
2013-08-27 19:00:00,79.0,64.4,29.72,ENE,68,0.0,0.0,61,0.00,CLR,,0.00,WeatherDisplay:10.37,2013-08-27 23:00:00,
2013-08-27 19:02:00,78.8,64.2,29.72,ENE,68,0.0,0.0,61,0.00,CLR,,0.00,WeatherDisplay:10.37,2013-08-27 23:02:00,
2013-08-27 19:05:00,78.1,64.0,29.72,ENE,68,0.0,0.0,62,0.00,CLR,,0.00,WeatherDisplay:10.37,2013-08-27 23:05:00,
2013-08-27 19:06:00,78.1,64.0,29.72,ENE,68,0.0,0.0,62,0.00,CLR,,0.00,WeatherDisplay:10.37,2013-08-27 23:06:00,
2013-08-27 19:07:00,77.9,64.3,29.72,East,90,0.0,0.0,63,0.00,CLR,,0.00,WeatherDisplay:10.37,2013-08-27 23:07:00,
2013-08-27 19:10:00,77.5,63.9,29.72,East,90,0.0,0.0,63,0.00,CLR,,0.00,WeatherDisplay:10.37,2013-08-27 23:10:00,
2013-08-27 19:11:00,77.5,63.9,29.72,East,90,0.0,0.0,63,0.00,CLR,,0.00,WeatherDisplay:10.37,2013-08-27 23:11:00,
2013-08-27 19:12:00,77.4,64.7,29.72,East,90,0.0,0.0,65,0.00,CLR,,0.00,WeatherDisplay:10.37,2013-08-27 23:12:00,
2013-08-27 19:15:00,77.2,64.5,29.72,East,90,0.0,0.0,65,0.00,CLR,,0.00,WeatherDisplay:10.37,2013-08-27 23:15:00,
2013-08-27 19:16:00,77.2,64.5,29.72,East,90,0.0,0.0,65,0.00,CLR,,0.00,WeatherDisplay:10.37,2013-08-27 23:16:00,
2013-08-27 19:17:00,77.0,64.3,29.72,East,90,0.0,0.0,65,0.00,CLR,,0.00,WeatherDisplay:10.37,2013-08-27 23:17:00,
2013-08-27 19:20:00,76.6,64.9,29.72,East,90,0.0,0.0,67,0.00,CLR,,0.00,WeatherDisplay:10.37,2013-08-27 23:20:00,
2013-08-27 19:21:00,76.6,64.9,29.72,East,90,0.0,0.0,67,0.00,CLR,,0.00,WeatherDisplay:10.37,2013-08-27 23:21:00,
2013-08-27 19:23:00,76.5,64.7,29.72,East,90,0.0,0.0,67,0.00,CLR,,0.00,WeatherDisplay:10.37,2013-08-27 23:23:00,
2013-08-27 19:26:00,76.3,64.9,29.72,East,90,0.0,0.0,68,0.00,CLR,,0.00,WeatherDisplay:10.37,2013-08-27 23:26:00,
2013-08-27 19:28:00,76.1,64.8,29.72,East,90,0.0,0.0,68,0.00,CLR,,0.00,WeatherDisplay:10.37,2013-08-27 23:28:00,
2013-08-27 19:31:00,75.7,64.4,29.72,East,90,0.0,0.0,68,0.00,CLR,,0.00,WeatherDisplay:10.37,2013-08-27 23:31:00,
2013-08-27 19:33:00,75.6,64.7,29.72,East,90,0.0,0.0,69,0.00,CLR,,0.00,WeatherDisplay:10.37,2013-08-27 23:33:00,
2013-08-27 19:34:00,75.6,64.7,29.72,East,90,0.0,0.0,69,0.00,CLR,,0.00,WeatherDisplay:10.37,2013-08-27 23:34:00,
2013-08-27 19:36:00,75.4,64.9,29.72,East,90,0.0,0.0,70,0.00,CLR,,0.00,WeatherDisplay:10.37,2013-08-27 23:36:00,
2013-08-27 19:37:00,75.4,64.9,29.72,East,90,0.0,0.0,70,0.00,CLR,,0.00,WeatherDisplay:10.37,2013-08-27 23:37:00,
2013-08-27 19:38:00,75.2,64.7,29.72,East,90,0.0,0.0,70,0.00,CLR,,0.00,WeatherDisplay:10.37,2013-08-27 23:38:00,
2013-08-27 19:39:00,75.0,65.0,29.72,East,90,0.0,0.0,71,0.00,CLR,,0.00,WeatherDisplay:10.37,2013-08-27 23:39:00,
2013-08-27 19:42:00,74.8,64.8,29.72,East,90,0.0,0.0,71,0.00,CLR,,0.00,WeatherDisplay:10.37,2013-08-27 23:42:00,
2013-08-27 19:43:00,74.8,64.8,29.72,East,90,0.0,0.0,71,0.00,CLR,,0.00,WeatherDisplay:10.37,2013-08-27 23:43:00,
2013-08-27 19:45:00,74.8,65.2,29.72,East,90,0.0,0.0,72,0.00,CLR,,0.00,WeatherDisplay:10.37,2013-08-27 23:45:00,
2013-08-27 19:47:00,74.7,65.4,29.72,East,90,0.0,0.0,73,0.00,CLR,,0.00,WeatherDisplay:10.37,2013-08-27 23:47:00,
2013-08-27 19:48:00,74.7,65.4,29.72,East,90,0.0,0.0,73,0.00,CLR,,0.00,WeatherDisplay:10.37,2013-08-27 23:48:00,
2013-08-27 19:50:00,74.5,65.3,29.72,East,90,0.0,0.0,73,0.00,CLR,,0.00,WeatherDisplay:10.37,2013-08-27 23:50:00,
2013-08-27 19:52:00,74.3,65.5,29.72,East,90,0.0,0.0,74,0.00,CLR,,0.00,WeatherDisplay:10.37,2013-08-27 23:52:00,
2013-08-27 19:53:00,74.3,65.5,29.72,East,90,0.0,0.0,74,0.00,CLR,,0.00,WeatherDisplay:10.37,2013-08-27 23:53:00,
2013-08-27 19:54:00,74.3,65.5,29.72,East,90,0.0,0.0,74,0.00,CLR,,0.00,WeatherDisplay:10.37,2013-08-27 23:54:00,
2013-08-27 19:55:00,74.1,65.3,29.72,East,90,0.0,0.0,74,0.00,CLR,,0.00,WeatherDisplay:10.37,2013-08-27 23:55:00,
2013-08-27 19:57:00,74.1,65.7,29.72,East,90,0.0,0.0,75,0.00,CLR,,0.00,WeatherDisplay:10.37,2013-08-27 23:57:00,
2013-08-27 19:58:00,73.9,65.5,29.72,East,90,0.0,0.0,75,0.00,CLR,,0.00,WeatherDisplay:10.37,2013-08-27 23:58:00,
2013-08-27 19:59:00,73.9,65.1,29.72,East,90,0.0,0.0,74,0.00,CLR,,0.00,WeatherDisplay:10.37,2013-08-27 23:59:00,
2013-08-27 20:00:00,73.8,65.7,29.72,East,90,0.0,0.0,76,0.00,CLR,,0.00,WeatherDisplay:10.37,2013-08-28 00:00:00,
2013-08-27 20:02:00,73.8,65.7,29.72,East,90,0.0,0.0,76,0.00,CLR,,0.00,WeatherDisplay:10.37,2013-08-28 00:02:00,
2013-08-27 20:03:00,73.8,65.7,29.72,East,90,0.0,0.0,76,0.00,CLR,,0.00,WeatherDisplay:10.37,2013-08-28 00:03:00,
2013-08-27 20:04:00,73.6,65.5,29.72,East,90,0.0,0.0,76,0.00,CLR,,0.00,WeatherDisplay:10.37,2013-08-28 00:04:00,
2013-08-27 20:05:00,73.6,65.5,29.72,East,90,0.0,0.0,76,0.00,CLR,,0.00,WeatherDisplay:10.37,2013-08-28 00:05:00,
2013-08-27 20:07:00,73.4,65.4,29.72,East,90,0.0,0.0,76,0.00,CLR,,0.00,WeatherDisplay:10.37,2013-08-28 00:07:00,
2013-08-27 20:08:00,73.4,65.7,29.72,East,90,0.0,0.0,77,0.00,CLR,,0.00,WeatherDisplay:10.37,2013-08-28 00:08:00,
2013-08-27 20:09:00,73.4,65.7,29.72,East,90,0.0,0.0,77,0.00,CLR,,0.00,WeatherDisplay:10.37,2013-08-28 00:09:00,
2013-08-27 20:10:00,73.2,65.6,29.72,East,90,0.0,0.0,77,0.00,CLR,,0.00,WeatherDisplay:10.37,2013-08-28 00:10:00,
2013-08-27 20:12:00,73.2,65.9,29.72,East,90,0.0,0.0,78,0.00,CLR,,0.00,WeatherDisplay:10.37,2013-08-28 00:12:00,
2013-08-27 20:14:00,73.2,65.9,29.72,East,90,0.0,0.0,78,0.00,CLR,,0.00,WeatherDisplay:10.37,2013-08-28 00:14:00,
2013-08-27 20:16:00,73.0,65.8,29.72,East,90,0.0,0.0,78,0.00,CLR,,0.00,WeatherDisplay:10.37,2013-08-28 00:16:00,
2013-08-27 20:17:00,73.0,66.1,29.72,East,90,0.0,0.0,79,0.00,CLR,,0.00,WeatherDisplay:10.37,2013-08-28 00:17:00,
2013-08-27 20:19:00,73.0,66.1,29.72,East,90,0.0,0.0,79,0.00,CLR,,0.00,WeatherDisplay:10.37,2013-08-28 00:19:00,
2013-08-27 20:20:00,72.9,66.0,29.72,East,90,0.0,0.0,79,0.00,CLR,,0.00,WeatherDisplay:10.37,2013-08-28 00:20:00,
2013-08-27 20:21:00,72.9,66.0,29.72,East,90,0.0,0.0,79,0.00,CLR,,0.00,WeatherDisplay:10.37,2013-08-28 00:21:00,
2013-08-27 20:23:00,72.9,66.0,29.72,East,90,0.0,0.0,79,0.00,CLR,,0.00,WeatherDisplay:10.37,2013-08-28 00:23:00,
2013-08-27 20:24:00,72.7,65.8,29.72,East,90,0.0,0.0,79,0.00,CLR,,0.00,WeatherDisplay:10.37,2013-08-28 00:24:00,
2013-08-27 20:25:00,72.7,65.8,29.72,East,90,0.0,0.0,79,0.00,CLR,,0.00,WeatherDisplay:10.37,2013-08-28 00:25:00,
2013-08-27 20:26:00,72.7,65.8,29.72,East,90,0.0,0.0,79,0.00,CLR,,0.00,WeatherDisplay:10.37,2013-08-28 00:26:00,
2013-08-27 20:28:00,72.5,66.0,29.75,East,90,0.0,0.0,80,0.00,CLR,,0.00,WeatherDisplay:10.37,2013-08-28 00:28:00,
2013-08-27 20:29:00,72.5,66.0,29.75,East,90,0.0,0.0,80,0.00,CLR,,0.00,WeatherDisplay:10.37,2013-08-28 00:29:00,
2013-08-27 20:30:00,72.5,66.0,29.75,East,90,0.0,0.0,80,0.00,CLR,,0.00,WeatherDisplay:10.37,2013-08-28 00:30:00,
2013-08-27 20:31:00,72.5,66.0,29.75,East,90,0.0,0.0,80,0.00,CLR,,0.00,WeatherDisplay:10.37,2013-08-28 00:31:00,
2013-08-27 20:33:00,72.5,66.0,29.75,East,90,0.0,0.0,80,0.00,CLR,,0.00,WeatherDisplay:10.37,2013-08-28 00:33:00,
2013-08-27 20:34:00,72.5,66.3,29.75,East,90,0.0,0.0,81,0.00,CLR,,0.00,WeatherDisplay:10.37,2013-08-28 00:34:00,
2013-08-27 20:35:00,72.5,66.3,29.75,East,90,0.0,0.0,81,0.00,CLR,,0.00,WeatherDisplay:10.37,2013-08-28 00:35:00,
2013-08-27 20:36:00,72.5,66.3,29.75,East,90,0.0,0.0,81,0.00,CLR,,0.00,WeatherDisplay:10.37,2013-08-28 00:36:00,
2013-08-27 20:38:00,72.5,66.3,29.75,East,90,0.0,0.0,81,0.00,CLR,,0.00,WeatherDisplay:10.37,2013-08-28 00:38:00,
2013-08-27 20:39:00,72.5,66.3,29.75,East,90,0.0,0.0,81,0.00,CLR,,0.00,WeatherDisplay:10.37,2013-08-28 00:39:00,
2013-08-27 20:40:00,72.5,66.3,29.75,East,90,0.0,0.0,81,0.00,CLR,,0.00,WeatherDisplay:10.37,2013-08-28 00:40:00,
2013-08-27 20:42:00,72.3,66.2,29.75,East,90,0.0,0.0,81,0.00,CLR,,0.00,WeatherDisplay:10.37,2013-08-28 00:42:00,
2013-08-27 20:43:00,72.3,66.2,29.72,East,90,0.0,0.0,81,0.00,CLR,,0.00,WeatherDisplay:10.37,2013-08-28 00:43:00,
2013-08-27 20:44:00,72.1,66.0,29.72,East,90,0.0,0.0,81,0.00,CLR,,0.00,WeatherDisplay:10.37,2013-08-28 00:44:00,
2013-08-27 20:45:00,72.1,66.0,29.72,East,90,0.0,0.0,81,0.00,CLR,,0.00,WeatherDisplay:10.37,2013-08-28 00:45:00,
2013-08-27 20:47:00,72.1,66.0,29.72,East,90,0.0,0.0,81,0.00,CLR,,0.00,WeatherDisplay:10.37,2013-08-28 00:47:00,
2013-08-27 20:48:00,72.1,66.3,29.72,East,90,0.0,0.0,82,0.00,CLR,,0.00,WeatherDisplay:10.37,2013-08-28 00:48:00,
2013-08-27 20:50:00,72.1,66.3,29.72,East,90,0.0,0.0,82,0.00,CLR,,0.00,WeatherDisplay:10.37,2013-08-28 00:50:00,
2013-08-27 20:52:00,72.1,66.7,29.72,East,90,0.0,0.0,83,0.00,CLR,,0.00,WeatherDisplay:10.37,2013-08-28 00:52:00,
2013-08-27 20:53:00,72.1,66.7,29.72,East,90,0.0,0.0,83,0.00,CLR,,0.00,WeatherDisplay:10.37,2013-08-28 00:53:00,
2013-08-27 20:55:00,72.1,66.7,29.72,East,90,0.0,0.0,83,0.00,CLR,,0.00,WeatherDisplay:10.37,2013-08-28 00:55:00,
2013-08-27 20:58:00,72.0,66.5,29.75,East,90,0.0,0.0,83,0.00,CLR,,0.00,WeatherDisplay:10.37,2013-08-28 00:58:00,
2013-08-27 21:00:00,72.0,66.5,29.75,East,90,0.0,0.0,83,0.00,CLR,,0.00,WeatherDisplay:10.37,2013-08-28 01:00:00,
2013-08-27 21:01:00,71.8,66.3,29.75,East,90,0.0,0.0,83,0.00,CLR,,0.00,WeatherDisplay:10.37,2013-08-28 01:01:00,
2013-08-27 21:03:00,71.8,66.7,29.75,East,90,0.0,0.0,84,0.00,CLR,,0.00,WeatherDisplay:10.37,2013-08-28 01:03:00,
2013-08-27 21:05:00,71.6,66.5,29.75,East,90,0.0,0.0,84,0.00,CLR,,0.00,WeatherDisplay:10.37,2013-08-28 01:05:00,
2013-08-27 21:06:00,71.6,66.5,29.75,East,90,0.0,0.0,84,0.00,CLR,,0.00,WeatherDisplay:10.37,2013-08-28 01:06:00,
2013-08-27 21:08:00,71.6,66.5,29.75,East,90,0.0,0.0,84,0.00,CLR,,0.00,WeatherDisplay:10.37,2013-08-28 01:08:00,
2013-08-27 21:10:00,71.6,66.5,29.75,East,90,0.0,0.0,84,0.00,CLR,,0.00,WeatherDisplay:10.37,2013-08-28 01:10:00,
2013-08-27 21:11:00,71.4,66.7,29.75,East,90,0.0,0.0,85,0.00,CLR,,0.00,WeatherDisplay:10.37,2013-08-28 01:11:00,
2013-08-27 21:13:00,71.4,66.3,29.75,East,90,0.0,0.0,84,0.00,CLR,,0.00,WeatherDisplay:10.37,2013-08-28 01:13:00,
2013-08-27 21:15:00,71.4,66.7,29.75,East,90,0.0,0.0,85,0.00,CLR,,0.00,WeatherDisplay:10.37,2013-08-28 01:15:00,
2013-08-27 21:16:00,71.2,66.5,29.75,East,90,0.0,0.0,85,0.00,CLR,,0.00,WeatherDisplay:10.37,2013-08-28 01:16:00,
2013-08-27 21:17:00,71.2,66.5,29.75,East,90,0.0,0.0,85,0.00,CLR,,0.00,WeatherDisplay:10.37,2013-08-28 01:17:00,
2013-08-27 21:18:00,71.2,66.5,29.75,East,90,0.0,0.0,85,0.00,CLR,,0.00,WeatherDisplay:10.37,2013-08-28 01:18:00,
2013-08-27 21:20:00,71.2,66.8,29.75,East,90,0.0,0.0,86,0.00,CLR,,0.00,WeatherDisplay:10.37,2013-08-28 01:20:00,
2013-08-27 21:21:00,71.2,66.8,29.75,East,90,0.0,0.0,86,0.00,CLR,,0.00,WeatherDisplay:10.37,2013-08-28 01:21:00,
2013-08-27 21:22:00,71.2,66.8,29.75,East,90,0.0,0.0,86,0.00,CLR,,0.00,WeatherDisplay:10.37,2013-08-28 01:22:00,
2013-08-27 21:23:00,71.2,66.8,29.75,East,90,0.0,0.0,86,0.00,CLR,,0.00,WeatherDisplay:10.37,2013-08-28 01:23:00,
2013-08-27 21:26:00,71.2,66.8,29.75,East,90,0.0,0.0,86,0.00,CLR,,0.00,WeatherDisplay:10.37,2013-08-28 01:26:00,
2013-08-27 21:27:00,71.1,66.7,29.75,East,90,0.0,0.0,86,0.00,CLR,,0.00,WeatherDisplay:10.37,2013-08-28 01:27:00,
2013-08-27 21:28:00,71.1,66.7,29.75,East,90,0.0,0.0,86,0.00,CLR,,0.00,WeatherDisplay:10.37,2013-08-28 01:28:00,
2013-08-27 21:31:00,71.1,66.7,29.75,East,90,0.0,0.0,86,0.00,CLR,,0.00,WeatherDisplay:10.37,2013-08-28 01:31:00,
2013-08-27 21:32:00,71.1,66.7,29.75,East,90,0.0,0.0,86,0.00,CLR,,0.00,WeatherDisplay:10.37,2013-08-28 01:32:00,
2013-08-27 21:33:00,71.1,67.0,29.75,East,90,0.0,0.0,87,0.00,CLR,,0.00,WeatherDisplay:10.37,2013-08-28 01:33:00,
2013-08-27 21:37:00,71.1,67.0,29.75,East,90,0.0,0.0,87,0.00,CLR,,0.00,WeatherDisplay:10.37,2013-08-28 01:37:00,
2013-08-27 21:38:00,71.1,67.0,29.75,East,90,0.0,0.0,87,0.00,CLR,,0.00,WeatherDisplay:10.37,2013-08-28 01:38:00,
2013-08-27 21:39:00,71.1,67.0,29.75,East,90,0.0,0.0,87,0.00,CLR,,0.00,WeatherDisplay:10.37,2013-08-28 01:39:00,
2013-08-27 21:42:00,71.1,67.0,29.75,East,90,0.0,0.0,87,0.00,CLR,,0.00,WeatherDisplay:10.37,2013-08-28 01:42:00,
2013-08-27 21:43:00,71.1,67.0,29.75,East,90,0.0,0.0,87,0.00,CLR,,0.00,WeatherDisplay:10.37,2013-08-28 01:43:00,
2013-08-27 21:44:00,71.1,67.0,29.75,East,90,0.0,0.0,87,0.00,CLR,,0.00,WeatherDisplay:10.37,2013-08-28 01:44:00,
2013-08-27 21:47:00,70.9,66.8,29.75,East,90,0.0,0.0,87,0.00,CLR,,0.00,WeatherDisplay:10.37,2013-08-28 01:47:00,
2013-08-27 21:48:00,70.9,66.8,29.75,East,90,0.0,0.0,87,0.00,CLR,,0.00,WeatherDisplay:10.37,2013-08-28 01:48:00,
2013-08-27 21:49:00,70.9,66.8,29.75,East,90,0.0,0.0,87,0.00,CLR,,0.00,WeatherDisplay:10.37,2013-08-28 01:49:00,
2013-08-27 21:52:00,70.9,67.1,29.75,East,90,0.0,0.0,88,0.00,CLR,,0.00,WeatherDisplay:10.37,2013-08-28 01:52:00,
2013-08-27 21:53:00,70.9,67.1,29.75,East,90,0.0,0.0,88,0.00,CLR,,0.00,WeatherDisplay:10.37,2013-08-28 01:53:00,
2013-08-27 21:54:00,70.7,67.0,29.75,East,90,0.0,0.0,88,0.00,CLR,,0.00,WeatherDisplay:10.37,2013-08-28 01:54:00,
2013-08-27 21:55:00,70.7,67.0,29.75,East,90,0.0,0.0,88,0.00,CLR,,0.00,WeatherDisplay:10.37,2013-08-28 01:55:00,
2013-08-27 21:58:00,70.7,67.0,29.75,East,90,0.0,0.0,88,0.00,CLR,,0.00,WeatherDisplay:10.37,2013-08-28 01:58:00,
2013-08-27 21:59:00,70.7,67.0,29.75,East,90,0.0,0.0,88,0.00,CLR,,0.00,WeatherDisplay:10.37,2013-08-28 01:59:00,
2013-08-27 22:01:00,70.7,67.0,29.75,East,90,0.0,0.0,88,0.00,CLR,,0.00,WeatherDisplay:10.37,2013-08-28 02:01:00,
2013-08-27 22:03:00,70.7,67.0,29.75,East,90,0.0,0.0,88,0.00,CLR,,0.00,WeatherDisplay:10.37,2013-08-28 02:03:00,
2013-08-27 22:04:00,70.9,67.1,29.75,East,90,0.0,0.0,88,0.00,CLR,,0.00,WeatherDisplay:10.37,2013-08-28 02:04:00,
2013-08-27 22:06:00,70.9,67.5,29.75,East,90,0.0,0.0,89,0.00,CLR,,0.00,WeatherDisplay:10.37,2013-08-28 02:06:00,
2013-08-27 22:08:00,70.9,67.5,29.75,East,90,0.0,0.0,89,0.00,CLR,,0.00,WeatherDisplay:10.37,2013-08-28 02:08:00,
2013-08-27 22:09:00,70.9,67.5,29.75,East,90,0.0,0.0,89,0.00,CLR,,0.00,WeatherDisplay:10.37,2013-08-28 02:09:00,
2013-08-27 22:12:00,70.9,67.5,29.75,East,90,0.0,0.0,89,0.00,CLR,,0.00,WeatherDisplay:10.37,2013-08-28 02:12:00,
2013-08-27 22:13:00,70.9,67.5,29.75,East,90,0.0,0.0,89,0.00,CLR,,0.00,WeatherDisplay:10.37,2013-08-28 02:13:00,
2013-08-27 22:14:00,70.9,67.5,29.75,East,90,0.0,0.0,89,0.00,CLR,,0.00,WeatherDisplay:10.37,2013-08-28 02:14:00,
2013-08-27 22:18:00,70.9,67.5,29.75,East,90,0.0,0.0,89,0.00,CLR,,0.00,WeatherDisplay:10.37,2013-08-28 02:18:00,
2013-08-27 22:19:00,70.7,67.3,29.75,East,90,0.0,0.0,89,0.00,CLR,,0.00,WeatherDisplay:10.37,2013-08-28 02:19:00,
2013-08-27 22:23:00,70.9,67.5,29.75,East,90,0.0,0.0,89,0.00,CLR,,0.00,WeatherDisplay:10.37,2013-08-28 02:23:00,
2013-08-27 22:24:00,70.9,67.5,29.75,East,90,0.0,0.0,89,0.00,CLR,,0.00,WeatherDisplay:10.37,2013-08-28 02:24:00,
2013-08-27 22:25:00,70.9,67.5,29.75,East,90,0.0,0.0,89,0.00,CLR,,0.00,WeatherDisplay:10.37,2013-08-28 02:25:00,
2013-08-27 22:26:00,70.9,67.5,29.75,East,90,0.0,0.0,89,0.00,CLR,,0.00,WeatherDisplay:10.37,2013-08-28 02:26:00,
2013-08-27 22:29:00,71.1,68.0,29.78,East,90,0.0,0.0,90,0.00,CLR,,0.00,WeatherDisplay:10.37,2013-08-28 02:29:00,
2013-08-27 22:30:00,71.2,68.2,29.78,East,90,0.0,0.0,90,0.00,CLR,,0.00,WeatherDisplay:10.37,2013-08-28 02:30:00,
2013-08-27 22:31:00,71.2,68.2,29.78,East,90,0.0,0.0,90,0.00,CLR,,0.00,WeatherDisplay:10.37,2013-08-28 02:31:00,
2013-08-27 22:34:00,71.2,68.2,29.78,East,90,0.0,0.0,90,0.00,CLR,,0.00,WeatherDisplay:10.37,2013-08-28 02:34:00,
2013-08-27 22:35:00,71.2,68.2,29.78,East,90,0.0,0.0,90,0.00,CLR,,0.00,WeatherDisplay:10.37,2013-08-28 02:35:00,
2013-08-27 22:36:00,71.4,68.3,29.78,East,90,0.0,0.0,90,0.00,CLR,,0.00,WeatherDisplay:10.37,2013-08-28 02:36:00,
2013-08-27 22:39:00,71.6,68.2,29.78,East,90,0.0,0.0,89,0.00,CLR,,0.00,WeatherDisplay:10.37,2013-08-28 02:39:00,
2013-08-27 22:40:00,71.6,68.2,29.78,East,90,0.0,0.0,89,0.00,CLR,,0.00,WeatherDisplay:10.37,2013-08-28 02:40:00,
2013-08-27 22:41:00,71.6,68.2,29.78,East,90,0.0,0.0,89,0.00,CLR,,0.00,WeatherDisplay:10.37,2013-08-28 02:41:00,
2013-08-27 22:45:00,71.6,68.5,29.78,North,0,0.0,0.0,90,0.00,CLR,,0.00,WeatherDisplay:10.37,2013-08-28 02:45:00,
2013-08-27 22:47:00,71.8,68.7,29.78,NE,45,0.0,0.0,90,0.00,CLR,,0.00,WeatherDisplay:10.37,2013-08-28 02:47:00,
2013-08-27 22:50:00,72.0,68.9,29.78,NW,315,0.0,0.0,90,0.00,CLR,,0.00,WeatherDisplay:10.37,2013-08-28 02:50:00,
2013-08-27 22:51:00,72.0,68.9,29.78,NNW,338,0.0,0.0,90,0.00,CLR,,0.00,WeatherDisplay:10.37,2013-08-28 02:51:00,
2013-08-27 22:52:00,72.0,68.9,29.78,NNE,22,0.0,0.0,90,0.00,CLR,,0.00,WeatherDisplay:10.37,2013-08-28 02:52:00,
2013-08-27 22:53:00,72.0,68.9,29.78,NNW,338,0.0,0.0,90,0.00,CLR,,0.00,WeatherDisplay:10.37,2013-08-28 02:53:00,
2013-08-27 22:56:00,72.1,69.0,29.78,WNW,292,0.0,0.0,90,0.00,CLR,,0.00,WeatherDisplay:10.37,2013-08-28 02:56:00,
2013-08-27 22:57:00,72.1,69.0,29.78,WNW,292,0.0,0.0,90,0.00,CLR,,0.00,WeatherDisplay:10.37,2013-08-28 02:57:00,
2013-08-27 22:58:00,72.1,69.0,29.75,WNW,292,0.0,0.0,90,0.00,CLR,,0.00,WeatherDisplay:10.37,2013-08-28 02:58:00,
2013-08-27 23:02:00,72.1,69.0,29.75,NW,315,0.0,0.0,90,0.00,CLR,,0.00,WeatherDisplay:10.37,2013-08-28 03:02:00,
2013-08-27 23:03:00,72.1,69.0,29.75,WNW,292,2.3,2.3,90,0.00,CLR,,0.00,WeatherDisplay:10.37,2013-08-28 03:03:00,
2013-08-27 23:07:00,72.1,69.0,29.75,WNW,292,0.0,0.0,90,0.00,CLR,,0.00,WeatherDisplay:10.37,2013-08-28 03:07:00,
2013-08-27 23:08:00,72.1,69.0,29.75,WNW,292,0.0,0.0,90,0.00,CLR,,0.00,WeatherDisplay:10.37,2013-08-28 03:08:00,
2013-08-27 23:09:00,72.1,69.0,29.75,NE,45,0.0,0.0,90,0.00,CLR,,0.00,WeatherDisplay:10.37,2013-08-28 03:09:00,
2013-08-27 23:12:00,72.1,69.0,29.75,NW,315,0.0,0.0,90,0.00,CLR,,0.00,WeatherDisplay:10.37,2013-08-28 03:12:00,
2013-08-27 23:13:00,72.1,69.0,29.75,WNW,292,0.0,0.0,90,0.00,CLR,,0.00,WeatherDisplay:10.37,2013-08-28 03:13:00,
2013-08-27 23:14:00,72.1,69.0,29.75,ENE,68,0.0,0.0,90,0.00,CLR,,0.00,WeatherDisplay:10.37,2013-08-28 03:14:00,
2013-08-27 23:17:00,72.0,68.9,29.75,WNW,292,2.3,0.0,90,0.00,CLR,,0.00,WeatherDisplay:10.37,2013-08-28 03:17:00,
2013-08-27 23:18:00,72.0,68.9,29.75,South,180,0.0,0.0,90,0.00,CLR,,0.00,WeatherDisplay:10.37,2013-08-28 03:18:00,
2013-08-27 23:19:00,72.0,68.9,29.75,South,180,0.0,0.0,90,0.00,CLR,,0.00,WeatherDisplay:10.37,2013-08-28 03:19:00,
2013-08-27 23:20:00,72.0,68.9,29.75,SW,225,0.0,0.0,90,0.00,CLR,,0.00,WeatherDisplay:10.37,2013-08-28 03:20:00,
2013-08-27 23:22:00,72.0,68.9,29.75,NW,315,0.0,0.0,90,0.00,CLR,,0.00,WeatherDisplay:10.37,2013-08-28 03:22:00,
2013-08-27 23:24:00,72.0,68.9,29.75,NW,315,0.0,0.0,90,0.00,CLR,,0.00,WeatherDisplay:10.37,2013-08-28 03:24:00,
2013-08-27 23:25:00,72.0,68.9,29.75,North,0,0.0,0.0,90,0.00,CLR,,0.00,WeatherDisplay:10.37,2013-08-28 03:25:00,
2013-08-27 23:27:00,72.0,68.9,29.75,North,0,0.0,0.0,90,0.00,CLR,,0.00,WeatherDisplay:10.37,2013-08-28 03:27:00,
2013-08-27 23:28:00,72.0,68.9,29.75,North,0,0.0,0.0,90,0.00,CLR,,0.00,WeatherDisplay:10.37,2013-08-28 03:28:00,
2013-08-27 23:29:00,72.0,68.9,29.75,North,0,0.0,0.0,90,0.00,CLR,,0.00,WeatherDisplay:10.37,2013-08-28 03:29:00,
2013-08-27 23:30:00,71.8,68.7,29.75,North,0,0.0,0.0,90,0.00,CLR,,0.00,WeatherDisplay:10.37,2013-08-28 03:30:00,
2013-08-27 23:32:00,71.8,68.7,29.75,North,0,0.0,0.0,90,0.00,CLR,,0.00,WeatherDisplay:10.37,2013-08-28 03:32:00,
2013-08-27 23:33:00,71.8,68.7,29.75,North,0,0.0,0.0,90,0.00,CLR,,0.00,WeatherDisplay:10.37,2013-08-28 03:33:00,
2013-08-27 23:34:00,71.8,68.7,29.75,North,0,0.0,0.0,90,0.00,CLR,,0.00,WeatherDisplay:10.37,2013-08-28 03:34:00,
2013-08-27 23:36:00,71.8,68.7,29.75,North,0,0.0,0.0,90,0.00,CLR,,0.00,WeatherDisplay:10.37,2013-08-28 03:36:00,
2013-08-27 23:38:00,71.8,68.7,29.75,ENE,68,0.0,0.0,90,0.00,CLR,,0.00,WeatherDisplay:10.37,2013-08-28 03:38:00,
2013-08-27 23:40:00,71.8,68.7,29.75,ENE,68,0.0,0.0,90,0.00,CLR,,0.00,WeatherDisplay:10.37,2013-08-28 03:40:00,
2013-08-27 23:41:00,71.8,68.7,29.75,ENE,68,0.0,0.0,90,0.00,CLR,,0.00,WeatherDisplay:10.37,2013-08-28 03:41:00,
2013-08-27 23:42:00,71.8,68.7,29.75,ENE,68,0.0,0.0,90,0.00,CLR,,0.00,WeatherDisplay:10.37,2013-08-28 03:42:00,
2013-08-27 23:43:00,71.8,68.7,29.75,ENE,68,0.0,0.0,90,0.00,CLR,,0.00,WeatherDisplay:10.37,2013-08-28 03:43:00,
2013-08-27 23:47:00,71.8,68.7,29.75,NW,315,0.0,0.0,90,0.00,CLR,,0.00,WeatherDisplay:10.37,2013-08-28 03:47:00,
2013-08-27 23:48:00,72.0,68.9,29.75,NW,315,0.0,0.0,90,0.00,CLR,,0.00,WeatherDisplay:10.37,2013-08-28 03:48:00,
2013-08-27 23:52:00,72.0,68.9,29.75,ENE,68,0.0,0.0,90,0.00,CLR,,0.00,WeatherDisplay:10.37,2013-08-28 03:52:00,
2013-08-27 23:53:00,72.0,68.9,29.75,ENE,68,0.0,0.0,90,0.00,CLR,,0.00,WeatherDisplay:10.37,2013-08-28 03:53:00,
2013-08-27 23:58:00,72.0,68.9,29.75,NW,315,0.0,0.0,90,0.00,CLR,,0.00,WeatherDisplay:10.37,2013-08-28 03:58:00,
2013-08-27 23:59:00,72.0,68.9,29.75,NW,315,0.0,0.0,90,0.00,CLR,,0.00,WeatherDisplay:10.37,2013-08-28 03:59:00,